Latitude: N 50° 09' 49" Longitude: W 05° 11' 53" Elevation: 168m ASL

There are 12 visitors online

Adverts

<- Previous Day | Today | Next Day ->

All Data for 24 June 2018

Time
A - D
Temp
A - D
Dew Point
A - D
Humidity
A - D
Pressure
A - D
Wind
A - D
Wind Dir Gust
A - D
Rain Rate
A - D
Rain Total
00:00 13.3 7.1 66 1027.0 3.1 NE 3.1 0.0 0.0
00:01 13.3 7.1 66 1027.0 3.1 NE 3.1 0.0 0.0
00:02 13.3 7.1 66 1027.0 3.1 NE 3.1 0.0 0.0
00:03 13.3 7.1 66 1026.9 2.2 NNE 3.1 0.0 0.0
00:04 13.3 7.1 66 1026.8 3.1 E 3.1 0.0 0.0
00:05 13.3 7.1 66 1027.0 3.1 NE 3.1 0.0 0.0
00:06 13.3 7.1 66 1027.1 3.1 NE 3.1 0.0 0.0
00:07 13.3 7.1 66 1026.9 3.1 NNE 3.1 0.0 0.0
00:09 13.3 7.1 66 1026.9 4.5 NW 4.5 0.0 0.0
00:10 13.4 7.2 66 1026.9 3.8 NE 4.5 0.0 0.0
00:11 13.4 7.2 66 1026.9 3.1 ENE 4.5 0.0 0.0
00:12 13.4 7.2 66 1026.9 3.1 NE 4.5 0.0 0.0
00:13 13.4 7.2 66 1026.8 3.1 NE 4.5 0.0 0.0
00:14 13.4 7.2 66 1027.0 3.8 NE 4.5 0.0 0.0
00:15 13.4 7.2 66 1027.0 3.8 N 4.5 0.0 0.0
00:16 13.4 7.2 66 1027.0 3.8 N 4.5 0.0 0.0
00:17 13.4 7.2 66 1026.9 3.8 NE 4.5 0.0 0.0
00:18 13.4 7.2 66 1026.9 3.8 NE 4.5 0.0 0.0
00:19 13.4 7.2 66 1026.9 3.8 N 4.5 0.0 0.0
00:20 13.4 7.2 66 1026.9 3.1 NE 4.5 0.0 0.0
00:21 13.3 7.1 66 1026.8 3.1 NE 3.8 0.0 0.0
00:22 13.4 7.2 66 1026.9 3.1 NNE 3.8 0.0 0.0
00:23 13.4 7.2 66 1026.9 3.8 NE 3.8 0.0 0.0
00:24 13.3 7.1 66 1026.9 3.1 NE 3.8 0.0 0.0
00:25 13.3 7.1 66 1027.0 3.1 NE 3.8 0.0 0.0
00:26 13.4 7.4 67 1026.8 3.1 N 3.8 0.0 0.0
00:28 13.3 7.3 67 1026.8 2.2 E 3.8 0.0 0.0
00:29 13.3 7.3 67 1026.9 3.1 E 3.8 0.0 0.0
00:30 13.3 7.3 67 1026.8 3.1 NE 3.8 0.0 0.0
00:31 13.3 7.3 67 1026.8 3.8 NE 3.8 0.0 0.0
00:32 13.3 7.3 67 1026.9 3.8 ENE 3.8 0.0 0.0
00:33 13.3 7.3 67 1026.8 3.1 N 3.8 0.0 0.0
00:34 13.3 7.3 67 1026.9 3.1 NE 3.8 0.0 0.0
00:35 13.3 7.3 67 1026.9 3.1 NE 3.8 0.0 0.0
00:36 13.3 7.5 68 1026.9 3.1 N 3.8 0.0 0.0
00:37 13.3 7.5 68 1026.8 3.1 NE 3.8 0.0 0.0
00:38 13.3 7.5 68 1026.9 3.1 NE 3.8 0.0 0.0
00:39 13.3 7.5 68 1026.8 3.1 NE 3.8 0.0 0.0
00:40 13.3 7.5 68 1027.1 3.1 NE 3.8 0.0 0.0
00:41 13.3 7.5 68 1026.8 3.1 ENE 3.8 0.0 0.0
00:42 13.2 7.6 69 1026.9 3.1 N 3.8 0.0 0.0
00:43 13.2 7.6 69 1026.7 2.2 ENE 3.8 0.0 0.0
00:44 13.2 7.6 69 1026.9 3.8 N 3.8 0.0 0.0
00:45 13.2 7.6 69 1026.9 2.2 NE 3.8 0.0 0.0
00:47 13.2 7.9 70 1026.9 2.2 N 3.8 0.0 0.0
00:48 13.2 7.9 70 1026.8 2.2 NNE 3.8 0.0 0.0
00:49 13.2 7.9 70 1026.8 3.8 NE 3.8 0.0 0.0
00:50 13.2 7.9 70 1026.9 3.1 NW 3.8 0.0 0.0
00:51 13.2 8.1 71 1026.8 3.1 NNE 3.8 0.0 0.0
00:52 13.2 8.1 71 1026.9 3.8 N 3.8 0.0 0.0
00:53 13.2 8.1 71 1026.8 3.1 N 3.8 0.0 0.0
00:54 13.2 8.1 71 1026.8 3.1 N 3.8 0.0 0.0
00:55 13.2 8.1 71 1026.8 2.2 NE 3.8 0.0 0.0
00:56 13.2 8.1 71 1026.8 3.1 NW 3.8 0.0 0.0
00:57 13.2 8.1 71 1026.8 4.5 N 4.5 0.0 0.0
00:58 13.2 8.1 71 1026.8 2.2 NE 4.5 0.0 0.0
00:59 13.2 8.3 72 1026.8 3.8 N 4.5 0.0 0.0
01:00 13.2 8.3 72 1026.8 2.2 NE 4.5 0.0 0.0
01:01 13.2 8.3 72 1026.8 3.1 N 4.5 0.0 0.0
01:02 13.2 8.3 72 1026.7 3.1 NE 4.5 0.0 0.0
01:03 13.2 8.3 72 1026.6 3.1 NE 4.5 0.0 0.0
01:04 13.2 8.3 72 1026.7 2.2 NE 4.5 0.0 0.0
01:05 13.2 8.5 73 1026.7 3.1 NE 4.5 0.0 0.0
01:06 13.2 8.5 73 1026.7 3.1 NE 4.5 0.0 0.0
01:07 13.2 8.5 73 1026.6 3.1 NE 4.5 0.0 0.0
01:08 13.2 8.5 73 1026.6 3.8 SE 3.8 0.0 0.0
01:09 13.2 8.5 73 1026.8 3.1 E 3.8 0.0 0.0
01:10 13.2 8.5 73 1026.5 3.1 N 3.8 0.0 0.0
01:11 13.2 8.5 73 1026.7 3.1 N 3.8 0.0 0.0
01:13 13.1 8.4 73 1026.5 2.2 NE 3.8 0.0 0.0
01:14 13.1 8.4 73 1026.5 2.2 NW 3.8 0.0 0.0
01:15 13.2 8.7 74 1026.6 3.1 NE 3.8 0.0 0.0
01:16 13.2 8.7 74 1026.6 3.1 N 3.8 0.0 0.0
01:17 13.1 8.6 74 1026.6 2.2 NE 3.8 0.0 0.0
01:18 13.1 8.6 74 1026.5 3.8 NE 3.8 0.0 0.0
01:19 13.1 8.6 74 1026.5 3.8 NE 3.8 0.0 0.0
01:20 13.1 8.6 74 1026.7 3.8 NE 3.8 0.0 0.0
01:21 13.1 8.6 74 1026.7 3.1 NE 3.8 0.0 0.0
01:22 13.2 8.7 74 1026.7 3.1 NE 3.8 0.0 0.0
01:23 13.1 8.6 74 1026.6 3.1 N 3.8 0.0 0.0
01:24 13.1 8.6 74 1026.6 3.1 N 3.8 0.0 0.0
01:25 13.1 8.6 74 1026.6 3.8 NE 3.8 0.0 0.0
01:26 13.1 8.6 74 1026.6 3.1 NE 3.8 0.0 0.0
01:27 13.1 8.8 75 1026.6 3.1 NE 3.8 0.0 0.0
01:28 13.1 8.8 75 1026.6 2.2 NE 3.8 0.0 0.0
01:29 13.1 8.8 75 1026.6 2.2 NE 3.8 0.0 0.0
01:30 13.1 8.8 75 1026.6 2.2 NE 3.8 0.0 0.0
01:32 13.1 8.8 75 1026.6 2.2 N 3.8 0.0 0.0
01:33 13.1 8.8 75 1026.5 3.1 NE 3.8 0.0 0.0
01:34 13.1 8.8 75 1026.6 2.2 N 3.8 0.0 0.0
01:35 13.1 8.8 75 1026.5 3.1 NE 3.8 0.0 0.0
01:36 13.1 9.0 76 1026.6 3.1 N 3.8 0.0 0.0
01:37 13.1 9.0 76 1026.5 3.1 N 3.8 0.0 0.0
01:38 13.1 9.0 76 1026.5 3.1 N 3.8 0.0 0.0
01:39 13.1 9.0 76 1026.6 3.8 N 3.8 0.0 0.0
01:40 13.0 8.9 76 1026.7 3.1 NNE 3.8 0.0 0.0
01:41 13.0 8.9 76 1026.4 3.1 N 3.8 0.0 0.0
01:42 13.1 9.0 76 1026.4 3.1 NNE 3.8 0.0 0.0
01:43 13.0 8.9 76 1026.5 2.2 N 3.8 0.0 0.0
01:44 13.0 8.9 76 1026.6 3.1 NE 3.8 0.0 0.0
01:45 13.0 8.9 76 1026.5 3.8 E 3.8 0.0 0.0
01:46 13.0 8.9 76 1026.4 2.2 NE 3.8 0.0 0.0
01:47 13.0 8.9 76 1026.4 3.1 NE 3.8 0.0 0.0
01:48 13.0 8.9 76 1026.5 3.1 NE 3.8 0.0 0.0
01:49 13.0 8.9 76 1026.5 3.1 NW 3.8 0.0 0.0
01:51 13.0 9.1 77 1026.6 3.1 N 3.8 0.0 0.0
01:52 13.0 9.1 77 1026.6 3.1 N 3.8 0.0 0.0
01:53 12.9 9.0 77 1026.5 3.1 NNE 3.8 0.0 0.0
01:54 12.9 9.0 77 1026.4 3.1 NNE 3.8 0.0 0.0
01:55 12.9 9.0 77 1026.5 3.1 NE 3.1 0.0 0.0
01:56 12.9 9.0 77 1026.5 3.1 N 3.1 0.0 0.0
01:57 12.9 9.0 77 1026.5 4.5 NE 4.5 0.0 0.0
01:58 12.9 9.0 77 1026.5 3.8 N 4.5 0.0 0.0
01:59 12.9 9.0 77 1026.5 4.5 N 4.5 0.0 0.0
02:00 12.9 9.0 77 1026.4 3.8 NE 4.5 0.0 0.0
02:01 12.9 9.0 77 1026.5 3.8 E 4.5 0.0 0.0
02:02 12.9 9.0 77 1026.4 3.8 E 4.5 0.0 0.0
02:03 12.9 9.0 77 1026.6 3.8 E 4.5 0.0 0.0
02:04 12.9 9.0 77 1026.4 3.8 E 4.5 0.0 0.0
02:05 12.9 9.0 77 1026.4 3.8 E 4.5 0.0 0.0
02:06 12.9 9.2 78 1026.3 3.8 N 4.5 0.0 0.0
02:07 12.9 9.2 78 1026.4 3.8 NE 4.5 0.0 0.0
02:08 12.9 9.2 78 1026.5 3.8 NE 4.5 0.0 0.0
02:10 12.8 9.1 78 1026.3 2.2 NE 3.8 0.0 0.0
02:11 12.9 9.2 78 1026.4 2.2 E 3.8 0.0 0.0
02:12 12.9 9.2 78 1026.3 3.1 WNW 3.8 0.0 0.0
02:13 12.8 9.1 78 1026.5 3.1 NE 4.5 0.0 0.0
02:14 12.8 9.1 78 1026.5 3.8 NE 4.5 0.0 0.0
02:15 12.8 9.1 78 1026.4 3.1 NNE 4.5 0.0 0.0
02:16 12.8 9.1 78 1026.5 3.1 N 4.5 0.0 0.0
02:17 12.8 9.1 78 1026.4 3.8 N 4.5 0.0 0.0
02:18 12.8 9.1 78 1026.4 3.1 N 4.5 0.0 0.0
02:19 12.8 9.1 78 1026.3 3.1 NE 4.5 0.0 0.0
02:20 12.8 9.1 78 1026.3 3.1 NE 4.5 0.0 0.0
02:21 12.8 9.1 78 1026.4 3.8 NE 4.5 0.0 0.0
02:22 12.8 9.3 79 1026.4 3.8 N 4.5 0.0 0.0
02:23 12.8 9.3 79 1026.3 3.8 NE 4.5 0.0 0.0
02:24 12.8 9.3 79 1026.2 3.1 NE 4.5 0.0 0.0
02:25 12.8 9.3 79 1026.3 3.1 N 4.5 0.0 0.0
02:26 12.8 9.3 79 1026.2 3.8 N 4.5 0.0 0.0
02:27 12.8 9.3 79 1026.2 3.1 N 4.5 0.0 0.0
02:29 12.7 9.2 79 1026.3 3.1 NE 4.5 0.0 0.0
02:30 12.7 9.2 79 1026.2 3.8 N 4.5 0.0 0.0
02:31 12.8 9.3 79 1026.3 3.1 NE 4.5 0.0 0.0
02:32 12.7 9.2 79 1026.2 3.8 N 4.5 0.0 0.0
02:33 12.8 9.3 79 1026.2 3.8 NE 4.5 0.0 0.0
02:34 12.8 9.3 79 1026.2 3.8 NE 4.5 0.0 0.0
02:35 12.7 9.2 79 1026.2 3.8 N 4.5 0.0 0.0
02:36 12.8 9.3 79 1026.1 3.8 N 4.5 0.0 0.0
02:37 12.8 9.3 79 1026.1 3.8 N 4.5 0.0 0.0
02:38 12.7 9.2 79 1026.2 3.1 N 4.5 0.0 0.0
02:39 12.8 9.3 79 1026.1 3.1 NE 4.5 0.0 0.0
02:40 12.8 9.3 79 1026.1 3.1 NE 3.8 0.0 0.0
02:41 12.8 9.3 79 1026.1 3.8 NE 3.8 0.0 0.0
02:42 12.7 9.2 79 1026.3 3.8 N 3.8 0.0 0.0
02:43 12.7 9.2 79 1026.2 3.1 N 3.8 0.0 0.0
02:44 12.7 9.2 79 1026.2 3.8 NE 3.8 0.0 0.0
02:45 12.8 9.3 79 1026.0 3.1 NE 3.8 0.0 0.0
02:46 12.8 9.3 79 1026.1 3.8 NE 3.8 0.0 0.0
02:48 12.7 9.2 79 1026.0 3.8 N 3.8 0.0 0.0
02:49 12.7 9.2 79 1026.1 3.8 NE 3.8 0.0 0.0
02:50 12.7 9.2 79 1026.0 3.1 N 3.8 0.0 0.0
02:51 12.7 9.2 79 1026.0 3.1 N 3.8 0.0 0.0
02:52 12.8 9.3 79 1026.0 4.5 E 4.5 0.0 0.0
02:53 12.8 9.3 79 1026.0 3.8 N 4.5 0.0 0.0
02:54 12.7 9.2 79 1026.0 4.5 N 4.5 0.0 0.0
02:55 12.7 9.2 79 1026.1 3.1 NE 4.5 0.0 0.0
02:56 12.7 9.2 79 1026.0 3.1 N 4.5 0.0 0.0
02:57 12.7 9.2 79 1025.9 3.1 N 4.5 0.0 0.0
02:58 12.7 9.2 79 1026.1 4.5 NE 4.5 0.0 0.0
02:59 12.8 9.3 79 1025.9 3.8 N 4.5 0.0 0.0
03:00 12.8 9.3 79 1025.9 3.8 N 4.5 0.0 0.0
03:01 12.8 9.3 79 1025.9 3.8 E 4.5 0.0 0.0
03:02 12.7 9.2 79 1025.8 3.8 NE 4.5 0.0 0.0
03:03 12.7 9.2 79 1025.9 3.1 NE 4.5 0.0 0.0
03:04 12.7 9.2 79 1026.0 3.1 NE 4.5 0.0 0.0
03:05 12.7 9.2 79 1026.1 3.8 E 4.5 0.0 0.0
03:07 12.7 9.2 79 1026.0 3.1 NE 4.5 0.0 0.0
03:08 12.8 9.3 79 1026.0 3.8 N 3.8 0.0 0.0
03:09 12.7 9.2 79 1025.9 2.2 N 3.8 0.0 0.0
03:10 12.7 9.2 79 1025.9 3.8 NE 3.8 0.0 0.0
03:11 12.7 9.2 79 1025.9 3.8 NE 3.8 0.0 0.0
03:12 12.7 9.2 79 1025.8 3.1 N 3.8 0.0 0.0
03:13 12.7 9.0 78 1025.8 3.1 NE 3.8 0.0 0.0
03:14 12.7 9.2 79 1025.9 3.1 NE 3.8 0.0 0.0
03:15 12.7 9.0 78 1025.9 3.1 NE 3.8 0.0 0.0
03:16 12.7 9.0 78 1025.9 3.1 NE 3.8 0.0 0.0
03:17 12.7 9.0 78 1025.8 3.8 N 3.8 0.0 0.0
03:18 12.7 9.0 78 1025.9 3.8 NE 3.8 0.0 0.0
03:19 12.7 9.0 78 1025.8 3.8 N 3.8 0.0 0.0
03:20 12.7 9.0 78 1025.8 3.8 N 3.8 0.0 0.0
03:21 12.6 8.9 78 1025.9 3.8 NW 3.8 0.0 0.0
03:22 12.6 8.9 78 1025.9 3.1 NE 3.8 0.0 0.0
03:23 12.6 8.9 78 1025.9 3.1 N 3.8 0.0 0.0
03:24 12.6 8.7 77 1025.9 3.1 NE 3.8 0.0 0.0
03:26 12.6 8.7 77 1026.1 3.1 NNE 3.8 0.0 0.0
03:27 12.6 8.7 77 1025.8 2.2 N 3.8 0.0 0.0
03:28 12.6 8.7 77 1025.8 2.2 NE 3.8 0.0 0.0
03:29 12.5 8.6 77 1025.8 2.2 N 3.8 0.0 0.0
03:30 12.5 8.6 77 1025.8 2.2 N 3.8 0.0 0.0
03:31 12.5 8.6 77 1025.8 2.2 N 3.8 0.0 0.0
03:32 12.5 8.4 76 1025.9 2.2 NE 3.1 0.0 0.0
03:33 12.5 8.4 76 1026.0 2.2 NNE 3.1 0.0 0.0
03:34 12.5 8.4 76 1026.0 1.6 N 3.1 0.0 0.0
03:35 12.5 8.4 76 1026.0 1.6 NE 3.1 0.0 0.0
03:36 12.5 8.4 76 1026.0 2.2 NE 3.1 0.0 0.0
03:37 12.5 8.4 76 1025.9 2.2 N 3.1 0.0 0.0
03:38 12.5 8.4 76 1025.9 2.2 N 3.1 0.0 0.0
03:39 12.4 8.3 76 1025.9 2.2 NNW 3.1 0.0 0.0
03:40 12.4 8.3 76 1025.9 2.2 NE 3.1 0.0 0.0
03:41 12.4 8.3 76 1025.7 2.2 N 3.1 0.0 0.0
03:42 12.4 8.3 76 1025.7 1.6 NE 3.1 0.0 0.0
03:43 12.4 8.3 76 1025.8 1.6 NE 3.1 0.0 0.0
03:45 12.4 8.1 75 1025.8 1.6 NE 3.1 0.0 0.0
03:46 12.4 8.1 75 1025.8 2.2 N 3.1 0.0 0.0
03:47 12.4 8.1 75 1025.9 2.2 N 3.1 0.0 0.0
03:48 12.4 8.1 75 1025.8 2.2 N 3.1 0.0 0.0
03:49 12.4 8.1 75 1025.7 1.6 N 3.1 0.0 0.0
03:50 12.3 8.0 75 1025.5 1.6 N 3.1 0.0 0.0
03:51 12.3 8.0 75 1025.7 1.6 N 3.1 0.0 0.0
03:52 12.3 8.0 75 1025.7 1.6 N 3.1 0.0 0.0
03:53 12.3 8.0 75 1025.6 1.6 N 3.1 0.0 0.0
03:54 12.3 8.0 75 1025.7 2.2 NE 3.1 0.0 0.0
03:55 12.3 8.0 75 1025.7 2.2 N 3.1 0.0 0.0
03:56 12.3 8.0 75 1025.7 3.1 N 3.1 0.0 0.0
03:57 12.3 8.0 75 1025.7 2.2 N 3.1 0.0 0.0
03:58 12.3 8.0 75 1025.6 3.1 NE 3.1 0.0 0.0
03:59 12.3 7.8 74 1025.7 3.1 N 3.1 0.0 0.0
04:00 12.3 7.8 74 1025.6 3.1 NW 3.1 0.0 0.0
04:01 12.3 7.8 74 1025.6 3.1 N 3.1 0.0 0.0
04:02 12.2 7.7 74 1025.7 3.8 NE 3.8 0.0 0.0
04:04 12.3 7.8 74 1025.6 3.8 NE 3.8 0.0 0.0
04:05 12.3 7.8 74 1025.6 3.1 N 3.8 0.0 0.0
04:06 12.2 7.7 74 1025.6 2.2 NE 3.8 0.0 0.0
04:07 12.2 7.7 74 1025.7 3.1 NE 3.8 0.0 0.0
04:08 12.2 7.5 73 1025.6 2.2 NE 3.8 0.0 0.0
04:09 12.2 7.5 73 1025.6 2.2 NE 3.8 0.0 0.0
04:10 12.2 7.5 73 1025.6 3.1 NE 3.8 0.0 0.0
04:11 12.2 7.5 73 1025.7 3.1 NE 3.8 0.0 0.0
04:12 12.2 7.5 73 1025.7 3.1 N 3.8 0.0 0.0
04:13 12.2 7.5 73 1025.6 3.1 NE 3.8 0.0 0.0
04:14 12.2 7.5 73 1025.6 3.8 NE 3.8 0.0 0.0
04:15 12.1 7.4 73 1025.7 2.2 NE 3.8 0.0 0.0
04:16 12.2 7.5 73 1025.6 3.1 NE 3.8 0.0 0.0
04:17 12.2 7.5 73 1025.7 3.1 N 3.8 0.0 0.0
04:18 12.2 7.5 73 1025.7 2.2 NE 3.8 0.0 0.0
04:20 12.1 7.4 73 1025.6 3.1 N 3.8 0.0 0.0
04:21 12.1 7.2 72 1025.6 2.2 N 3.8 0.0 0.0
04:22 12.1 7.2 72 1025.5 3.1 NW 3.8 0.0 0.0
04:23 12.1 7.2 72 1025.5 2.2 NE 3.8 0.0 0.0
04:24 12.1 7.2 72 1025.6 3.1 NW 3.1 0.0 0.0
04:25 12.1 7.2 72 1025.5 3.1 N 3.1 0.0 0.0
04:26 12.1 7.2 72 1025.5 2.2 NE 3.1 0.0 0.0
04:27 12.1 7.2 72 1025.4 3.1 NE 3.1 0.0 0.0
04:28 12.1 7.2 72 1025.4 3.1 N 3.1 0.0 0.0
04:29 12.1 7.2 72 1025.5 3.1 NE 3.1 0.0 0.0
04:30 12.1 7.2 72 1025.5 3.1 NE 3.1 0.0 0.0
04:31 12.1 7.2 72 1025.5 2.2 NE 3.1 0.0 0.0
04:32 12.1 7.2 72 1025.4 3.8 N 3.8 0.0 0.0
04:33 12.1 7.2 72 1025.4 3.1 N 3.8 0.0 0.0
04:35 12.1 7.2 72 1025.5 2.2 N 3.8 0.0 0.0
04:36 12.1 7.2 72 1025.5 3.1 NE 3.8 0.0 0.0
04:37 12.1 7.2 72 1025.5 3.1 NE 3.8 0.0 0.0
04:38 12.1 7.2 72 1025.5 3.1 NE 3.8 0.0 0.0
04:39 12.0 7.1 72 1025.4 3.1 N 3.8 0.0 0.0
04:40 12.0 6.9 71 1025.4 3.1 NE 3.8 0.0 0.0
04:41 12.0 7.1 72 1025.3 2.2 N 3.8 0.0 0.0
04:42 12.0 7.1 72 1025.5 2.2 N 3.8 0.0 0.0
04:43 12.0 6.9 71 1025.4 2.2 N 3.8 0.0 0.0
04:44 12.0 7.1 72 1025.3 2.2 N 3.1 0.0 0.0
04:45 12.0 7.1 72 1025.4 2.2 N 3.1 0.0 0.0
04:46 12.0 6.9 71 1025.4 2.2 N 3.1 0.0 0.0
04:47 12.0 6.9 71 1025.4 3.8 N 3.8 0.0 0.0
04:49 12.0 6.9 71 1025.4 3.1 N 3.8 0.0 0.0
04:50 12.0 6.9 71 1025.4 3.1 NE 3.8 0.0 0.0
04:51 12.0 6.9 71 1025.3 2.2 N 3.8 0.0 0.0
04:52 12.0 6.9 71 1025.3 2.2 NW 3.8 0.0 0.0
04:53 12.0 6.9 71 1025.3 2.2 N 3.8 0.0 0.0
04:54 12.0 6.9 71 1025.3 0.7 N 3.8 0.0 0.0
04:55 12.0 6.9 71 1025.3 1.6 N 3.8 0.0 0.0
04:56 12.0 6.9 71 1025.3 0.7 N 3.8 0.0 0.0
04:57 12.0 6.9 71 1025.4 0.7 N 3.8 0.0 0.0
04:58 12.0 6.9 71 1025.3 1.6 N 3.1 0.0 0.0
04:59 12.0 6.9 71 1025.2 2.2 N 3.1 0.0 0.0
05:00 12.0 6.7 70 1025.3 3.1 NW 3.1 0.0 0.0
05:01 12.0 6.7 70 1025.3 1.6 N 3.1 0.0 0.0
05:02 12.0 6.7 70 1025.3 1.6 N 3.1 0.0 0.0
05:03 12.0 6.7 70 1025.3 2.2 N 3.1 0.0 0.0
05:05 12.1 6.8 70 1025.3 1.6 N 3.1 0.0 0.0
05:06 12.1 6.8 70 1025.3 1.6 NE 3.1 0.0 0.0
05:07 12.1 6.8 70 1025.5 1.6 N 3.1 0.0 0.0
05:08 12.1 6.8 70 1025.4 3.1 N 3.1 0.0 0.0
05:09 12.1 6.8 70 1025.4 3.1 N 3.1 0.0 0.0
05:10 12.1 6.8 70 1025.4 1.6 N 3.1 0.0 0.0
05:11 12.1 6.8 70 1025.5 2.2 NE 3.1 0.0 0.0
05:12 12.1 6.8 70 1025.3 2.2 N 3.1 0.0 0.0
05:13 12.1 6.8 70 1025.3 3.1 N 3.1 0.0 0.0
05:14 12.1 6.8 70 1025.3 3.1 N 3.1 0.0 0.0
05:15 12.1 6.8 70 1025.4 3.1 N 3.1 0.0 0.0
05:16 12.1 6.8 70 1025.3 3.1 NW 3.1 0.0 0.0
05:17 12.1 6.8 70 1025.3 2.2 N 3.1 0.0 0.0
05:19 12.1 6.8 70 1025.3 1.6 N 3.1 0.0 0.0
05:20 12.1 6.6 69 1025.3 1.6 NE 3.1 0.0 0.0
05:21 12.1 6.6 69 1025.3 3.1 N 3.1 0.0 0.0
05:22 12.1 6.6 69 1025.3 2.2 N 3.1 0.0 0.0
05:23 12.1 6.6 69 1025.5 3.1 N 3.1 0.0 0.0
05:24 12.1 6.6 69 1025.4 3.1 NE 3.1 0.0 0.0
05:25 12.1 6.6 69 1025.4 2.2 N 3.1 0.0 0.0
05:26 12.1 6.6 69 1025.4 3.1 NE 3.1 0.0 0.0
05:27 12.1 6.6 69 1025.3 3.8 ENE 3.8 0.0 0.0
05:28 12.1 6.6 69 1025.3 3.1 N 3.8 0.0 0.0
05:29 12.2 6.5 68 1025.5 3.8 NE 3.8 0.0 0.0
05:30 12.2 6.5 68 1025.3 3.1 WSW 3.8 0.0 0.0
05:31 12.2 6.5 68 1025.3 3.1 NE 3.8 0.0 0.0
05:32 12.2 6.5 68 1025.3 3.1 NE 3.8 0.0 0.0
05:34 12.2 6.3 67 1025.4 3.8 N 3.8 0.0 0.0
05:35 12.2 6.3 67 1025.5 3.1 NE 3.8 0.0 0.0
05:36 12.2 6.3 67 1025.5 3.1 N 3.8 0.0 0.0
05:37 12.2 6.3 67 1025.5 3.1 N 3.8 0.0 0.0
05:38 12.2 6.3 67 1025.5 3.1 NE 3.8 0.0 0.0
05:39 12.2 6.3 67 1025.5 3.1 N 3.8 0.0 0.0
05:40 12.2 6.0 66 1025.5 3.8 NE 3.8 0.0 0.0
05:41 12.2 6.0 66 1025.5 3.1 NE 3.8 0.0 0.0
05:42 12.2 6.0 66 1025.4 3.1 NE 3.8 0.0 0.0
05:43 12.2 6.0 66 1025.5 3.1 NW 4.5 0.0 0.0
05:44 12.2 6.0 66 1025.6 2.2 N 4.5 0.0 0.0
05:45 12.2 6.0 66 1025.5 3.1 NE 4.5 0.0 0.0
05:46 12.2 6.0 66 1025.6 3.1 NE 4.5 0.0 0.0
05:48 12.2 6.0 66 1025.5 3.8 N 4.5 0.0 0.0
05:49 12.2 5.8 65 1025.7 2.2 NE 4.5 0.0 0.0
05:50 12.2 5.8 65 1025.7 3.8 NE 4.5 0.0 0.0
05:51 12.2 5.8 65 1025.5 2.2 N 4.5 0.0 0.0
05:52 12.2 5.8 65 1025.6 2.2 N 4.5 0.0 0.0
05:53 12.2 5.8 65 1025.5 2.2 N 4.5 0.0 0.0
05:54 12.2 5.8 65 1025.5 2.2 N 4.5 0.0 0.0
05:55 12.2 5.8 65 1025.7 3.1 N 4.5 0.0 0.0
05:56 12.2 5.8 65 1025.6 2.2 N 4.5 0.0 0.0
05:57 12.2 5.8 65 1025.6 2.2 NW 4.5 0.0 0.0
05:58 12.2 5.8 65 1025.6 2.2 N 3.8 0.0 0.0
05:59 12.2 5.8 65 1025.6 3.8 N 3.8 0.0 0.0
06:00 12.2 5.8 65 1025.6 3.1 N 3.8 0.0 0.0
06:02 12.2 5.8 65 1025.6 3.8 NW 4.5 0.0 0.0
06:03 12.2 5.8 65 1025.5 3.8 NE 4.5 0.0 0.0
06:04 12.2 5.8 65 1025.5 2.2 NE 4.5 0.0 0.0
06:05 12.2 5.8 65 1025.5 2.2 NE 4.5 0.0 0.0
06:06 12.3 5.7 64 1025.6 3.1 N 4.5 0.0 0.0
06:07 12.3 5.7 64 1025.5 2.2 NE 4.5 0.0 0.0
06:08 12.3 5.9 65 1025.6 2.2 N 4.5 0.0 0.0
06:09 12.3 5.9 65 1025.6 2.2 NE 4.5 0.0 0.0
06:10 12.3 5.7 64 1025.6 3.1 N 4.5 0.0 0.0
06:11 12.3 5.7 64 1025.6 2.2 NE 4.5 0.0 0.0
06:12 12.3 5.9 65 1025.5 2.2 NE 3.8 0.0 0.0
06:13 12.3 5.7 64 1025.6 2.2 NE 3.1 0.0 0.0
06:14 12.3 5.7 64 1025.7 3.1 NE 3.1 0.0 0.0
06:15 12.3 5.7 64 1025.5 3.1 N 3.1 0.0 0.0
06:17 12.4 6.0 65 1025.6 3.1 N 3.1 0.0 0.0
06:18 12.4 6.0 65 1025.6 3.1 NW 3.1 0.0 0.0
06:19 12.4 6.0 65 1025.7 2.2 N 3.1 0.0 0.0
06:20 12.4 6.0 65 1025.7 2.2 N 3.1 0.0 0.0
06:21 12.4 6.0 65 1025.6 2.2 N 3.1 0.0 0.0
06:22 12.4 6.0 65 1025.8 1.6 NE 3.1 0.0 0.0
06:23 12.4 6.0 65 1025.7 2.2 NE 3.1 0.0 0.0
06:24 12.4 6.0 65 1025.7 3.1 NE 3.1 0.0 0.0
06:25 12.4 6.0 65 1025.6 3.1 N 3.1 0.0 0.0
06:26 12.5 6.1 65 1025.8 3.1 N 3.1 0.0 0.0
06:27 12.5 6.1 65 1025.6 2.2 NE 3.1 0.0 0.0
06:28 12.5 6.1 65 1025.7 3.1 N 3.1 0.0 0.0
06:29 12.5 6.1 65 1025.7 2.2 NE 3.1 0.0 0.0
06:31 12.5 6.1 65 1025.7 3.1 N 3.1 0.0 0.0
06:32 12.5 6.1 65 1025.6 2.2 N 3.1 0.0 0.0
06:33 12.5 6.1 65 1025.7 3.1 NE 3.1 0.0 0.0
06:34 12.5 6.1 65 1025.7 3.1 NE 3.1 0.0 0.0
06:35 12.5 6.3 66 1025.6 3.1 NE 3.1 0.0 0.0
06:36 12.5 6.3 66 1025.7 3.1 ENE 3.1 0.0 0.0
06:37 12.6 6.4 66 1025.7 3.1 N 3.1 0.0 0.0
06:38 12.6 6.4 66 1025.7 3.1 N 3.1 0.0 0.0
06:39 12.6 6.4 66 1025.7 3.8 NE 3.8 0.0 0.0
06:40 12.6 6.4 66 1025.7 3.8 NE 3.8 0.0 0.0
06:41 12.7 6.5 66 1025.6 2.2 NE 3.8 0.0 0.0
06:42 12.7 6.5 66 1025.6 3.1 NE 3.8 0.0 0.0
06:43 12.7 6.5 66 1025.7 3.1 N 3.8 0.0 0.0
06:44 12.7 6.5 66 1025.7 3.8 NE 3.8 0.0 0.0
06:46 12.8 6.6 66 1025.7 1.6 N 3.8 0.0 0.0
06:47 12.8 6.6 66 1025.7 2.2 N 3.8 0.0 0.0
06:48 12.8 6.6 66 1025.8 2.2 N 3.8 0.0 0.0
06:49 12.8 6.6 66 1025.8 2.2 NW 3.8 0.0 0.0
06:50 12.8 6.6 66 1025.6 2.2 N 3.8 0.0 0.0
06:51 12.9 6.9 67 1025.7 2.2 N 3.8 0.0 0.0
06:52 12.9 6.7 66 1025.7 3.1 NE 3.8 0.0 0.0
06:53 12.9 6.9 67 1025.7 3.8 NE 3.8 0.0 0.0
06:54 12.9 6.9 67 1025.7 2.2 N 3.8 0.0 0.0
06:55 12.9 6.9 67 1025.7 3.1 N 3.8 0.0 0.0
06:56 13.0 7.0 67 1025.9 3.8 NE 3.8 0.0 0.0
06:57 13.0 7.0 67 1025.7 2.2 NE 3.8 0.0 0.0
06:58 13.1 7.1 67 1025.7 2.2 NE 3.8 0.0 0.0
07:00 13.1 7.1 67 1025.8 3.1 NE 3.8 0.0 0.0
07:01 13.1 7.1 67 1025.7 2.2 NE 3.8 0.0 0.0
07:02 13.2 7.2 67 1025.9 3.1 NE 3.8 0.0 0.0
07:03 13.2 7.2 67 1025.7 3.1 NE 3.8 0.0 0.0
07:04 13.2 7.2 67 1025.8 1.6 NE 3.8 0.0 0.0
07:05 13.2 7.2 67 1025.8 2.2 N 3.8 0.0 0.0
07:06 13.3 7.3 67 1025.8 2.2 N 3.8 0.0 0.0
07:07 13.3 7.3 67 1025.8 2.2 N 3.1 0.0 0.0
07:08 13.4 7.4 67 1025.9 2.2 NE 3.1 0.0 0.0
07:09 13.3 7.3 67 1025.8 2.2 NE 3.1 0.0 0.0
07:10 13.4 7.4 67 1025.8 3.1 NE 3.1 0.0 0.0
07:11 13.4 7.4 67 1025.8 3.1 NE 3.1 0.0 0.0
07:12 13.4 7.4 67 1025.8 3.1 E 3.1 0.0 0.0
07:13 13.5 7.5 67 1025.8 3.1 E 3.1 0.0 0.0
07:14 13.5 7.5 67 1025.9 3.8 NE 3.8 0.0 0.0
07:16 13.6 7.6 67 1025.9 3.8 NE 3.8 0.0 0.0
07:17 13.7 7.7 67 1025.9 3.8 N 3.8 0.0 0.0
07:18 13.7 7.7 67 1025.7 5.4 NE 5.4 0.0 0.0
07:19 13.7 7.9 68 1025.7 4.5 N 5.4 0.0 0.0
07:20 13.8 8.0 68 1025.8 4.5 N 5.4 0.0 0.0
07:21 13.8 8.0 68 1025.7 6.0 N 6.0 0.0 0.0
07:22 13.8 8.0 68 1026.0 5.4 E 6.0 0.0 0.0
07:23 13.9 8.1 68 1025.9 4.5 N 6.0 0.0 0.0
07:24 13.9 8.1 68 1025.9 3.8 N 6.0 0.0 0.0
07:25 14.0 8.2 68 1025.8 3.8 NE 6.0 0.0 0.0
07:26 14.0 8.2 68 1025.9 4.5 NE 6.0 0.0 0.0
07:27 14.0 8.2 68 1025.8 4.5 NE 6.0 0.0 0.0
07:28 14.1 8.3 68 1025.9 5.4 NE 6.0 0.0 0.0
07:29 14.1 8.3 68 1025.8 4.5 NE 6.0 0.0 0.0
07:30 14.2 8.4 68 1025.7 4.5 NE 6.0 0.0 0.0
07:32 14.3 8.5 68 1025.9 3.1 NE 5.4 0.0 0.0
07:33 14.5 8.7 68 1025.9 3.8 NE 5.4 0.0 0.0
07:34 14.5 8.7 68 1025.9 3.8 NE 5.4 0.0 0.0
07:35 14.3 8.7 69 1025.8 4.5 N 5.4 0.0 0.0
07:36 14.3 8.7 69 1025.9 3.8 N 5.4 0.0 0.0
07:37 14.4 8.8 69 1025.8 3.8 NE 5.4 0.0 0.0
07:38 14.4 8.8 69 1025.9 4.5 NNE 5.4 0.0 0.0
07:39 14.4 8.8 69 1026.0 3.8 NE 6.0 0.0 0.0
07:40 14.5 8.9 69 1026.1 3.8 NE 6.0 0.0 0.0
07:41 14.5 8.9 69 1025.9 4.5 NE 6.0 0.0 0.0
07:42 14.6 9.0 69 1026.0 3.8 N 6.0 0.0 0.0
07:43 14.6 9.0 69 1025.9 3.8 N 6.0 0.0 0.0
07:44 14.6 9.2 70 1025.8 3.1 N 6.0 0.0 0.0
07:46 14.7 9.3 70 1025.9 3.8 N 6.0 0.0 0.0
07:47 14.7 9.3 70 1025.8 4.5 NE 6.0 0.0 0.0
07:48 14.8 9.4 70 1025.9 6.0 N 6.0 0.0 0.0
07:49 14.8 9.4 70 1025.9 6.0 N 6.0 0.0 0.0
07:50 14.8 9.4 70 1025.8 5.4 NE 6.0 0.0 0.0
07:51 14.8 9.4 70 1025.8 5.4 NE 6.0 0.0 0.0
07:52 14.9 9.5 70 1025.9 6.0 NE 6.0 0.0 0.0
07:53 14.9 9.5 70 1025.9 5.4 NE 6.0 0.0 0.0
07:54 14.9 9.5 70 1026.0 6.9 N 6.9 0.0 0.0
07:55 15.0 9.6 70 1026.0 5.4 NE 6.9 0.0 0.0
07:56 15.0 9.6 70 1025.8 4.5 NE 6.9 0.0 0.0
07:57 15.1 9.7 70 1025.8 4.5 NE 6.9 0.0 0.0
07:58 15.1 9.7 70 1025.9 4.5 NW 6.9 0.0 0.0
07:59 15.1 9.7 70 1025.9 3.1 NE 6.9 0.0 0.0
08:01 15.2 9.8 70 1025.7 3.1 NE 6.9 0.0 0.0
08:02 15.2 9.8 70 1025.8 2.2 NE 6.9 0.0 0.0
08:03 15.3 9.9 70 1025.8 3.1 NE 6.9 0.0 0.0
08:04 15.3 9.9 70 1025.8 4.5 NE 5.4 0.0 0.0
08:05 15.3 9.9 70 1025.6 6.0 NE 6.0 0.0 0.0
08:06 15.3 9.9 70 1025.7 3.8 NE 6.0 0.0 0.0
08:07 15.4 10.0 70 1025.6 4.5 N 6.0 0.0 0.0
08:08 15.4 10.0 70 1025.7 3.8 NE 6.0 0.0 0.0
08:09 15.5 10.1 70 1025.6 4.5 NW 6.0 0.0 0.0
08:10 15.5 10.1 70 1025.8 3.8 NE 6.0 0.0 0.0
08:11 15.6 10.2 70 1025.6 3.1 N 6.0 0.0 0.0
08:12 15.6 10.2 70 1025.7 4.5 N 6.0 0.0 0.0
08:13 15.6 10.2 70 1025.8 3.1 NE 6.0 0.0 0.0
08:15 15.7 10.3 70 1025.8 5.4 NE 5.4 0.0 0.0
08:16 15.7 10.0 69 1025.7 3.8 NE 5.4 0.0 0.0
08:17 15.8 10.3 70 1025.7 4.5 N 5.4 0.0 0.0
08:18 15.8 10.3 70 1025.7 4.5 N 5.4 0.0 0.0
08:19 15.8 10.3 70 1025.7 4.5 N 5.4 0.0 0.0
08:20 15.9 10.2 69 1025.8 3.8 NE 5.4 0.0 0.0
08:21 15.8 10.1 69 1025.7 4.5 NE 5.4 0.0 0.0
08:22 15.9 10.2 69 1025.7 4.5 E 5.4 0.0 0.0
08:23 16.0 10.3 69 1025.7 4.5 N 5.4 0.0 0.0
08:24 16.0 10.3 69 1025.7 3.1 N 5.4 0.0 0.0
08:25 16.0 10.3 69 1025.8 4.5 N 5.4 0.0 0.0
08:26 16.1 10.4 69 1025.7 3.8 NE 4.5 0.0 0.0
08:27 16.1 10.4 69 1025.7 3.8 NNE 4.5 0.0 0.0
08:28 16.2 10.5 69 1025.7 2.2 NE 4.5 0.0 0.0
08:30 16.2 10.5 69 1025.8 4.5 N 4.5 0.0 0.0
08:31 16.2 10.5 69 1025.7 3.1 NW 4.5 0.0 0.0
08:32 16.3 10.6 69 1025.8 1.6 N 4.5 0.0 0.0
08:33 16.3 10.6 69 1025.8 3.1 N 4.5 0.0 0.0
08:34 16.4 10.7 69 1025.7 2.2 N 4.5 0.0 0.0
08:35 16.4 10.7 69 1025.7 3.1 WNW 4.5 0.0 0.0
08:36 16.4 10.7 69 1025.7 3.1 NW 4.5 0.0 0.0
08:37 16.5 10.6 68 1025.7 3.1 NE 4.5 0.0 0.0
08:38 16.5 10.6 68 1025.7 3.8 NE 4.5 0.0 0.0
08:39 16.6 10.7 68 1025.7 3.1 N 4.5 0.0 0.0
08:40 16.7 10.8 68 1025.8 4.5 NW 5.4 0.0 0.0
08:41 16.7 10.8 68 1025.7 5.4 NW 5.4 0.0 0.0
08:42 16.7 10.8 68 1025.8 3.1 NW 5.4 0.0 0.0
08:44 16.8 10.9 68 1025.8 4.5 N 5.4 0.0 0.0
08:45 16.9 11.0 68 1025.8 4.5 N 5.4 0.0 0.0
08:46 16.9 11.0 68 1025.8 4.5 N 5.4 0.0 0.0
08:47 16.9 10.7 67 1025.7 5.4 NE 5.4 0.0 0.0
08:48 16.9 10.7 67 1025.8 4.5 N 5.4 0.0 0.0
08:49 16.9 10.7 67 1025.9 4.5 N 5.4 0.0 0.0
08:50 17.0 10.8 67 1025.9 3.1 NE 5.4 0.0 0.0
08:51 17.0 10.6 66 1025.9 3.8 NE 5.4 0.0 0.0
08:52 17.1 10.9 67 1025.9 3.1 N 5.4 0.0 0.0
08:53 17.1 10.9 67 1025.8 3.1 NE 5.4 0.0 0.0
08:54 17.2 10.8 66 1025.8 4.5 NE 5.4 0.0 0.0
08:55 17.2 10.8 66 1025.9 3.8 NE 5.4 0.0 0.0
08:56 17.2 11.0 67 1026.0 4.5 NE 5.4 0.0 0.0
08:57 17.3 10.9 66 1025.9 4.5 NE 4.5 0.0 0.0
08:59 17.3 10.9 66 1025.9 4.5 NE 5.4 0.0 0.0
09:00 17.4 11.0 66 1026.0 5.4 NE 5.4 0.0 0.0
09:01 17.4 11.0 66 1026.0 5.4 NE 5.4 0.0 0.0
09:02 17.5 11.1 66 1026.0 5.4 E 5.4 0.0 0.0
09:03 17.5 11.1 66 1026.0 3.8 NE 5.4 0.0 0.0
09:04 17.6 11.2 66 1026.0 4.5 NE 5.4 0.0 0.0
09:05 17.6 11.2 66 1026.0 4.5 NE 5.4 0.0 0.0
09:06 17.6 11.0 65 1025.8 3.1 NE 5.4 0.0 0.0
09:07 17.7 11.0 65 1025.8 3.8 NE 5.4 0.0 0.0
09:08 17.8 11.1 65 1026.0 4.5 N 5.4 0.0 0.0
09:09 17.8 10.9 64 1025.9 4.5 N 5.4 0.0 0.0
09:10 17.9 11.0 64 1025.6 3.8 NE 5.4 0.0 0.0
09:11 18.0 11.1 64 1025.8 4.5 NE 5.4 0.0 0.0
09:12 18.0 11.1 64 1025.6 3.8 N 4.5 0.0 0.0
09:13 18.1 11.0 63 1025.8 3.1 SE 4.5 0.0 0.0
09:14 18.1 11.0 63 1025.7 3.8 NE 4.5 0.0 0.0
09:15 18.2 11.0 63 1025.8 3.1 N 4.5 0.0 0.0
09:17 18.3 11.1 63 1025.7 3.8 NE 4.5 0.0 0.0
09:18 18.4 11.0 62 1025.7 3.8 NE 4.5 0.0 0.0
09:19 18.4 11.0 62 1025.6 4.5 NE 4.5 0.0 0.0
09:20 18.5 11.1 62 1025.8 6.0 N 6.0 0.0 0.0
09:21 18.5 10.8 61 1025.7 4.5 ENE 6.0 0.0 0.0
09:22 18.6 10.9 61 1025.8 5.4 NE 6.0 0.0 0.0
09:23 18.6 10.9 61 1025.7 4.5 NE 6.0 0.0 0.0
09:24 18.7 10.8 60 1025.8 3.8 NE 6.0 0.0 0.0
09:25 18.7 10.8 60 1025.8 4.5 NE 6.0 0.0 0.0
09:26 18.8 10.6 59 1025.9 4.5 NE 6.0 0.0 0.0
09:27 18.8 10.4 58 1025.8 5.4 NE 6.0 0.0 0.0
09:28 18.9 10.5 58 1025.7 3.1 E 6.0 0.0 0.0
09:29 18.9 10.2 57 1025.8 3.8 N 6.0 0.0 0.0
09:30 19.0 10.3 57 1025.8 6.0 NE 6.0 0.0 0.0
09:32 19.1 10.7 58 1025.7 3.8 NE 6.0 0.0 0.0
09:33 19.1 10.7 58 1025.9 5.4 SE 6.0 0.0 0.0
09:34 19.2 10.5 57 1025.8 4.5 NE 6.0 0.0 0.0
09:35 19.2 10.5 57 1025.7 3.8 NE 6.0 0.0 0.0
09:36 19.2 10.7 58 1025.7 3.8 NW 6.0 0.0 0.0
09:37 19.3 10.8 58 1025.8 4.5 NE 6.0 0.0 0.0
09:38 19.4 10.7 57 1025.7 4.5 NE 6.0 0.0 0.0
09:39 19.4 10.7 57 1025.8 3.1 N 6.0 0.0 0.0
09:40 19.4 10.9 58 1025.8 5.4 N 6.0 0.0 0.0
09:41 19.5 11.0 58 1025.8 4.5 N 5.4 0.0 0.0
09:42 19.5 11.0 58 1025.7 4.5 NE 5.4 0.0 0.0
09:43 19.6 11.1 58 1025.8 4.5 N 5.4 0.0 0.0
09:44 19.7 11.0 57 1025.6 4.5 ENE 6.0 0.0 0.0
09:45 19.7 11.0 57 1025.7 5.4 ENE 6.0 0.0 0.0
09:47 19.8 10.8 56 1025.8 3.8 NE 6.0 0.0 0.0
09:48 19.8 10.5 55 1025.8 4.5 NE 6.0 0.0 0.0
09:49 19.8 10.5 55 1025.8 4.5 NE 6.0 0.0 0.0
09:50 19.9 10.6 55 1025.8 3.8 NE 6.0 0.0 0.0
09:51 20.0 10.7 55 1025.6 4.5 N 6.0 0.0 0.0
09:52 20.0 10.7 55 1025.7 3.1 N 6.0 0.0 0.0
09:53 20.0 10.7 55 1025.7 3.8 N 6.0 0.0 0.0
09:54 20.1 10.8 55 1025.7 2.2 N 6.0 0.0 0.0
09:55 20.1 10.8 55 1025.8 1.6 NW 5.4 0.0 0.0
09:56 20.2 10.6 54 1025.8 5.4 NE 5.4 0.0 0.0
09:57 20.2 10.6 54 1025.7 3.1 NW 5.4 0.0 0.0
09:58 20.2 10.6 54 1025.7 6.0 NE 6.0 0.0 0.0
09:59 20.3 10.7 54 1025.8 6.0 NE 6.0 0.0 0.0
10:00 20.3 10.7 54 1025.8 2.2 N 6.0 0.0 0.0
10:02 20.4 10.5 53 1025.7 1.6 W 6.0 0.0 0.0
10:03 20.5 10.6 53 1025.6 3.1 E 6.0 0.0 0.0
10:04 20.5 10.3 52 1025.6 4.5 N 6.0 0.0 0.0
10:05 20.6 10.4 52 1025.6 4.5 NW 6.0 0.0 0.0
10:06 20.7 10.5 52 1025.7 5.4 NE 6.0 0.0 0.0
10:07 20.7 10.2 51 1025.8 5.4 S 6.0 0.0 0.0
10:08 20.8 10.3 51 1025.8 3.1 NE 6.0 0.0 0.0
10:09 20.9 10.4 51 1025.8 3.8 SW 6.0 0.0 0.0
10:10 21.0 10.5 51 1025.8 4.5 N 5.4 0.0 0.0
10:11 21.1 10.3 50 1025.8 3.8 W 5.4 0.0 0.0
10:12 21.2 10.1 49 1025.8 1.6 N 5.4 0.0 0.0
10:13 21.2 10.1 49 1025.8 1.6 SE 5.4 0.0 0.0
10:14 21.2 9.8 48 1025.7 1.6 NE 5.4 0.0 0.0
10:15 21.3 9.9 48 1025.7 3.1 NE 5.4 0.0 0.0
10:17 21.3 9.9 48 1025.7 3.1 N 4.5 0.0 0.0
10:18 21.4 9.9 48 1025.8 1.6 W 4.5 0.0 0.0
10:19 21.4 9.9 48 1025.7 3.1 W 4.5 0.0 0.0
10:20 21.4 9.9 48 1025.7 3.1 N 4.5 0.0 0.0
10:21 21.5 9.7 47 1025.7 3.8 N 4.5 0.0 0.0
10:22 21.4 9.6 47 1025.7 3.1 NE 4.5 0.0 0.0
10:23 21.5 9.7 47 1025.7 1.6 NW 4.5 0.0 0.0
10:24 21.5 9.4 46 1025.7 4.5 S 4.5 0.0 0.0
10:25 21.5 9.4 46 1025.7 3.1 N 4.5 0.0 0.0
10:26 21.5 9.7 47 1025.6 3.1 N 4.5 0.0 0.0
10:27 21.5 9.7 47 1025.8 0.7 NE 4.5 0.0 0.0
10:28 21.6 10.1 48 1025.6 4.5 NE 4.5 0.0 0.0
10:29 21.6 9.8 47 1025.7 4.5 N 4.5 0.0 0.0
10:31 21.7 9.9 47 1025.7 6.0 E 6.0 0.0 0.0
10:32 21.8 9.7 46 1025.7 4.5 NE 6.0 0.0 0.0
10:33 21.8 9.7 46 1025.7 4.5 NE 6.0 0.0 0.0
10:34 21.9 9.1 44 1025.6 2.2 SE 6.0 0.0 0.0
10:35 21.9 9.1 44 1025.7 1.6 N 6.0 0.0 0.0
10:36 21.9 9.1 44 1025.8 6.9 NE 6.9 0.0 0.0
10:37 21.9 9.4 45 1025.7 6.9 NE 6.9 0.0 0.0
10:38 21.9 9.4 45 1025.7 3.1 N 6.9 0.0 0.0
10:39 22.0 9.5 45 1025.8 3.8 NE 6.9 0.0 0.0
10:40 22.0 9.5 45 1025.8 2.2 N 6.9 0.0 0.0
10:41 22.0 9.2 44 1025.8 2.2 S 6.9 0.0 0.0
10:42 22.0 9.2 44 1025.8 3.1 N 6.9 0.0 0.0
10:43 22.1 9.3 44 1025.9 6.0 NE 6.9 0.0 0.0
10:44 22.1 9.6 45 1025.7 4.5 NE 6.9 0.0 0.0
10:45 22.2 9.7 45 1025.8 3.1 NW 6.9 0.0 0.0
10:47 22.2 9.4 44 1025.7 4.5 E 6.0 0.0 0.0
10:48 22.2 9.4 44 1025.8 6.9 NE 6.9 0.0 0.0
10:49 22.3 9.5 44 1025.9 7.6 E 7.6 0.0 0.0
10:50 22.3 9.5 44 1025.8 4.5 NE 7.6 0.0 0.0
10:51 22.3 9.8 45 1025.8 3.1 NE 7.6 0.0 0.0
10:52 22.4 9.2 43 1025.8 3.1 S 7.6 0.0 0.0
10:53 22.4 9.6 44 1025.9 6.9 NE 7.6 0.0 0.0
10:54 22.5 9.3 43 1025.8 3.1 N 7.6 0.0 0.0
10:55 22.5 9.3 43 1025.8 4.5 S 7.6 0.0 0.0
10:56 22.5 9.3 43 1025.9 6.0 NE 7.6 0.0 0.0
10:57 22.6 9.1 42 1025.9 3.8 NE 7.6 0.0 0.0
10:58 22.6 9.4 43 1025.9 4.5 NW 7.6 0.0 0.0
10:59 22.6 9.4 43 1025.9 2.2 NE 6.9 0.0 0.0
11:00 22.6 9.1 42 1025.9 3.1 NW 6.9 0.0 0.0
11:01 22.6 9.4 43 1025.8 6.0 SE 6.9 0.0 0.0
11:02 22.6 9.1 42 1025.9 3.8 E 6.9 0.0 0.0
11:03 22.6 9.7 44 1026.0 2.2 N 6.0 0.0 0.0
11:05 22.6 9.1 42 1025.9 3.1 W 6.0 0.0 0.0
11:07 22.6 9.4 43 1025.9 4.5 NE 6.0 0.0 0.0
11:08 22.7 9.1 42 1025.9 3.8 N 6.0 0.0 0.0
11:09 22.7 9.8 44 1025.9 1.6 N 6.0 0.0 0.0
11:10 22.8 9.9 44 1025.9 6.9 N 6.9 0.0 0.0
11:11 23.0 10.1 44 1025.9 6.0 N 6.9 0.0 0.0
11:12 23.0 9.8 43 1026.0 5.4 N 6.9 0.0 0.0
11:13 23.0 9.4 42 1026.0 3.1 NE 6.9 0.0 0.0
11:14 23.0 9.8 43 1026.1 3.8 NE 6.9 0.0 0.0
11:15 23.0 9.8 43 1026.1 3.8 NE 6.9 0.0 0.0
11:16 23.1 9.9 43 1026.0 4.5 S 6.9 0.0 0.0
11:17 23.1 10.2 44 1026.0 3.8 W 6.9 0.0 0.0
11:18 23.1 10.2 44 1026.1 4.5 SW 6.9 0.0 0.0
11:19 23.1 10.2 44 1026.1 4.5 NE 6.9 0.0 0.0
11:20 23.1 9.9 43 1026.0 3.8 NE 6.9 0.0 0.0
11:21 23.1 9.5 42 1026.0 4.5 NE 6.0 0.0 0.0
11:23 23.0 9.8 43 1026.0 6.0 NE 6.0 0.0 0.0
11:24 23.0 9.8 43 1026.1 3.1 E 7.6 0.0 0.0
11:25 23.0 10.1 44 1025.9 3.1 N 7.6 0.0 0.0
11:26 23.0 9.8 43 1026.0 4.5 N 7.6 0.0 0.0
11:27 23.0 9.8 43 1025.9 4.5 N 7.6 0.0 0.0
11:28 23.0 9.4 42 1026.0 6.9 SW 7.6 0.0 0.0
11:29 22.9 9.3 42 1025.9 6.9 SE 7.6 0.0 0.0
11:30 22.9 9.7 43 1025.8 9.2 SSE 9.2 0.0 0.0
11:31 22.8 9.6 43 1025.9 6.0 N 9.2 0.0 0.0
11:32 22.8 9.6 43 1026.0 6.9 E 9.2 0.0 0.0
11:33 22.7 9.5 43 1026.0 6.0 E 9.2 0.0 0.0
11:34 22.7 9.5 43 1025.9 5.4 S 9.2 0.0 0.0
11:35 22.6 9.4 43 1026.0 6.9 E 9.2 0.0 0.0
11:36 22.6 9.7 44 1026.1 5.4 E 9.2 0.0 0.0
11:38 22.7 9.8 44 1026.1 5.4 SE 9.2 0.0 0.0
11:39 22.7 9.8 44 1026.1 4.5 SE 9.2 0.0 0.0
11:40 22.8 9.9 44 1026.1 5.4 SE 6.9 0.0 0.0
11:41 22.8 9.6 43 1025.9 6.0 N 6.9 0.0 0.0
11:42 22.9 10.0 44 1026.0 4.5 NW 6.9 0.0 0.0
11:43 23.0 9.8 43 1026.0 3.1 SE 6.9 0.0 0.0
11:44 23.0 10.1 44 1026.0 5.4 S 6.9 0.0 0.0
11:45 23.0 9.8 43 1026.0 6.0 S 6.0 0.0 0.0
11:46 23.0 9.8 43 1026.0 3.1 SE 6.0 0.0 0.0
11:47 23.0 9.8 43 1026.0 3.1 SE 6.0 0.0 0.0
11:48 23.0 9.8 43 1026.0 3.8 NE 6.0 0.0 0.0
11:49 23.0 9.4 42 1026.0 3.8 S 6.0 0.0 0.0
11:50 23.0 9.4 42 1025.9 3.8 SE 6.0 0.0 0.0
11:51 23.1 9.5 42 1026.0 5.4 N 6.0 0.0 0.0
11:52 23.1 9.5 42 1026.1 3.1 E 6.0 0.0 0.0
11:54 23.1 9.5 42 1026.0 6.9 NE 6.9 0.0 0.0
11:55 23.2 9.6 42 1026.0 5.4 NW 6.9 0.0 0.0
11:56 23.3 9.7 42 1025.9 6.0 S 6.9 0.0 0.0
11:57 23.3 9.7 42 1025.9 4.5 NE 6.9 0.0 0.0
11:58 23.4 9.4 41 1026.0 4.5 N 6.9 0.0 0.0
11:59 23.4 9.4 41 1025.8 3.8 N 6.9 0.0 0.0
12:00 23.4 9.4 41 1026.0 6.9 NE 6.9 0.0 0.0
12:01 23.4 9.4 41 1026.0 6.9 NE 6.9 0.0 0.0
12:02 23.4 9.8 42 1026.1 6.0 SE 6.9 0.0 0.0
12:03 23.4 9.8 42 1026.1 6.0 SE 6.9 0.0 0.0
12:04 23.4 9.8 42 1025.9 3.8 N 6.9 0.0 0.0
12:05 23.4 9.8 42 1025.9 6.9 E 6.9 0.0 0.0
12:06 23.4 9.0 40 1025.9 5.4 S 6.9 0.0 0.0
12:07 23.4 9.0 40 1025.9 6.0 SE 6.9 0.0 0.0
12:08 23.3 9.3 41 1026.0 4.5 SE 6.9 0.0 0.0
12:10 23.2 9.2 41 1026.1 6.0 E 6.9 0.0 0.0
12:11 23.2 9.6 42 1026.0 8.3 SE 8.3 0.0 0.0
12:12 23.1 9.5 42 1026.0 9.8 SE 9.8 0.0 0.0
12:13 23.1 10.2 44 1026.1 6.9 SE 9.8 0.0 0.0
12:14 23.1 9.5 42 1026.0 6.0 SE 9.8 0.0 0.0
12:15 23.1 9.5 42 1026.0 6.9 S 9.8 0.0 0.0
12:16 23.1 9.5 42 1025.7 4.5 S 9.8 0.0 0.0
12:17 23.1 9.9 43 1025.8 4.5 S 9.8 0.0 0.0
12:18 23.1 10.5 45 1025.8 3.1 NE 9.8 0.0 0.0
12:19 23.1 9.9 43 1025.9 6.0 ENE 9.8 0.0 0.0
12:20 23.1 9.5 42 1026.0 3.1 SW 9.8 0.0 0.0
12:21 23.2 9.6 42 1025.8 6.9 SE 9.8 0.0 0.0
12:22 23.2 10.3 44 1025.9 5.4 SE 9.8 0.0 0.0
12:23 23.3 10.0 43 1025.8 8.3 S 8.3 0.0 0.0
12:25 23.2 9.6 42 1026.0 8.3 SSW 8.3 0.0 0.0
12:26 23.2 9.6 42 1025.8 6.0 S 8.3 0.0 0.0
12:27 23.2 9.9 43 1025.8 6.0 S 8.3 0.0 0.0
12:28 23.2 9.6 42 1025.8 5.4 S 8.3 0.0 0.0
12:29 23.2 9.6 42 1025.9 4.5 E 8.3 0.0 0.0
12:30 23.2 9.9 43 1025.8 3.1 SW 8.3 0.0 0.0
12:31 23.3 10.4 44 1025.8 4.5 S 8.3 0.0 0.0
12:32 23.4 10.1 43 1025.8 4.5 S 8.3 0.0 0.0
12:33 23.5 9.9 42 1025.8 3.1 NE 8.3 0.0 0.0
12:34 23.5 9.9 42 1025.8 4.5 WSW 8.3 0.0 0.0
12:35 23.5 9.9 42 1025.8 6.9 NE 8.3 0.0 0.0
12:36 23.5 9.5 41 1025.7 5.4 SE 7.6 0.0 0.0
12:37 23.5 9.5 41 1025.8 3.1 N 6.9 0.0 0.0
12:38 23.5 9.9 42 1025.7 3.1 E 6.9 0.0 0.0
12:40 23.6 10.0 42 1025.7 4.5 NE 6.9 0.0 0.0
12:41 23.8 9.8 41 1025.7 1.6 S 6.9 0.0 0.0
12:42 23.8 10.1 42 1025.7 3.1 SE 6.9 0.0 0.0
12:43 23.9 10.2 42 1025.7 2.2 S 6.9 0.0 0.0
12:44 24.0 10.3 42 1025.7 3.8 E 6.9 0.0 0.0
12:45 24.0 10.7 43 1025.6 3.1 E 6.0 0.0 0.0
12:46 24.2 10.1 41 1025.6 5.4 S 5.4 0.0 0.0
12:47 24.2 10.5 42 1025.6 4.5 SW 5.4 0.0 0.0
12:48 24.2 10.5 42 1025.6 4.5 SW 5.4 0.0 0.0
12:49 24.3 10.2 41 1025.6 6.0 NE 6.0 0.0 0.0
12:50 24.3 10.2 41 1025.6 5.4 NE 6.0 0.0 0.0
12:51 24.4 10.7 42 1025.5 4.5 N 6.0 0.0 0.0
12:52 24.5 10.8 42 1025.6 3.1 NE 6.0 0.0 0.0
12:53 24.7 10.6 41 1025.5 5.4 S 6.0 0.0 0.0
12:54 24.7 10.2 40 1025.7 4.5 N 6.0 0.0 0.0
12:56 24.7 10.6 41 1025.7 3.8 N 6.0 0.0 0.0
12:57 24.8 10.7 41 1025.6 3.8 SE 6.0 0.0 0.0
12:58 24.9 10.4 40 1025.5 3.8 NE 6.0 0.0 0.0
12:59 24.9 11.1 42 1025.5 3.8 NE 5.4 0.0 0.0
13:00 25.0 10.9 41 1025.5 4.5 S 5.4 0.0 0.0
13:01 25.0 10.9 41 1025.5 4.5 S 5.4 0.0 0.0
13:02 24.9 10.4 40 1025.5 3.8 S 5.4 0.0 0.0
13:03 24.8 10.7 41 1025.6 5.4 SE 5.4 0.0 0.0
13:04 24.8 10.3 40 1025.5 5.4 S 5.4 0.0 0.0
13:05 24.7 10.6 41 1025.4 6.0 S 6.0 0.0 0.0
13:06 24.7 10.6 41 1025.6 3.8 SW 6.0 0.0 0.0
13:07 24.8 10.7 41 1025.6 5.4 S 6.0 0.0 0.0
13:08 24.8 10.7 41 1025.6 5.4 S 6.0 0.0 0.0
13:09 24.7 10.6 41 1025.5 2.2 NW 6.0 0.0 0.0
13:10 24.7 10.9 42 1025.5 3.8 SSE 6.0 0.0 0.0
13:11 24.7 10.6 41 1025.4 3.8 W 6.0 0.0 0.0
13:12 24.7 10.9 42 1025.5 3.8 NE 6.0 0.0 0.0
13:13 24.8 11.4 43 1025.6 4.5 NE 6.0 0.0 0.0
13:14 25.0 11.6 43 1025.4 5.4 N 6.0 0.0 0.0
13:15 25.2 11.4 42 1025.4 6.0 NE 6.0 0.0 0.0
13:16 25.3 11.5 42 1025.5 4.5 NE 6.0 0.0 0.0
13:17 25.4 11.2 41 1025.3 2.2 NE 6.0 0.0 0.0
13:18 25.5 11.7 42 1025.4 2.2 S 6.0 0.0 0.0
13:19 25.6 11.0 40 1025.5 1.6 NW 6.0 0.0 0.0
13:20 25.6 11.8 42 1025.4 4.5 NE 6.0 0.0 0.0
13:21 25.8 11.2 40 1025.5 2.2 NE 6.0 0.0 0.0
13:22 25.8 11.6 41 1025.6 4.5 NE 6.0 0.0 0.0
13:23 25.9 11.3 40 1025.5 4.5 NE 6.0 0.0 0.0
13:24 25.9 11.3 40 1025.5 4.5 NE 6.0 0.0 0.0
13:25 26.1 11.5 40 1025.6 3.1 NE 6.0 0.0 0.0
13:26 26.1 11.1 39 1025.6 3.1 SE 4.5 0.0 0.0
13:27 26.2 10.8 38 1025.5 3.8 SE 4.5 0.0 0.0
13:28 26.0 10.6 38 1025.5 3.8 S 4.5 0.0 0.0
13:29 25.9 10.5 38 1025.4 3.8 S 4.5 0.0 0.0
13:30 25.7 10.3 38 1025.5 3.1 E 4.5 0.0 0.0
13:32 25.6 11.0 40 1025.3 3.8 SE 4.5 0.0 0.0
13:33 25.6 11.0 40 1025.4 4.5 SE 4.5 0.0 0.0
13:34 25.6 10.6 39 1025.3 3.8 NE 4.5 0.0 0.0
13:35 25.6 11.4 41 1025.3 3.1 SE 4.5 0.0 0.0
13:36 25.7 11.5 41 1025.5 3.1 N 4.5 0.0 0.0
13:37 25.7 11.1 40 1025.4 2.2 NW 4.5 0.0 0.0
13:38 25.7 11.5 41 1025.5 2.2 SE 4.5 0.0 0.0
13:39 25.7 11.5 41 1025.3 5.4 SW 5.4 0.0 0.0
13:40 25.7 11.1 40 1025.4 6.9 E 6.9 0.0 0.0
13:41 25.7 11.1 40 1025.3 5.4 S 6.9 0.0 0.0
13:42 25.6 11.0 40 1025.4 3.8 SE 6.9 0.0 0.0
13:43 25.6 11.0 40 1025.4 3.8 SW 6.9 0.0 0.0
13:44 25.5 11.3 41 1025.4 3.1 NE 6.9 0.0 0.0
13:45 25.4 11.2 41 1025.3 3.1 NE 6.9 0.0 0.0
13:46 25.4 11.2 41 1025.5 3.1 N 6.9 0.0 0.0
13:47 25.5 10.9 40 1025.5 6.0 E 6.9 0.0 0.0
13:48 25.5 11.7 42 1025.3 6.9 NE 6.9 0.0 0.0
13:49 25.6 11.8 42 1025.3 6.0 N 6.9 0.0 0.0
13:50 25.7 11.8 42 1025.3 3.8 N 6.9 0.0 0.0
13:51 25.7 11.5 41 1025.4 6.9 N 6.9 0.0 0.0
13:52 25.8 11.6 41 1025.4 5.4 SW 6.9 0.0 0.0
13:53 25.8 11.2 40 1025.4 4.5 N 6.9 0.0 0.0
13:54 25.8 11.6 41 1025.3 3.8 E 6.9 0.0 0.0
13:55 25.7 11.5 41 1025.5 5.4 N 6.9 0.0 0.0
13:56 25.8 11.6 41 1025.4 3.8 NW 6.9 0.0 0.0
13:57 25.8 11.2 40 1025.4 3.1 SE 6.9 0.0 0.0
13:58 25.8 10.8 39 1025.3 5.4 N 6.9 0.0 0.0
13:59 25.8 10.8 39 1025.4 3.1 N 6.9 0.0 0.0
14:00 25.6 11.0 40 1025.4 4.5 NE 6.9 0.0 0.0
14:01 25.6 11.0 40 1025.3 4.5 NE 6.9 0.0 0.0
14:02 25.5 10.9 40 1025.3 6.9 SW 6.9 0.0 0.0
14:03 25.5 11.3 41 1025.3 5.4 NE 6.9 0.0 0.0
14:04 25.5 10.9 40 1025.3 3.8 S 6.9 0.0 0.0
14:05 25.4 11.2 41 1025.4 4.5 N 6.9 0.0 0.0
14:06 25.4 11.2 41 1025.3 4.5 S 6.9 0.0 0.0
14:07 25.2 11.0 41 1025.5 5.4 NW 6.9 0.0 0.0
14:08 25.4 11.6 42 1025.3 3.8 E 6.9 0.0 0.0
14:09 25.5 11.3 41 1025.3 3.8 N 6.9 0.0 0.0
14:10 25.5 11.3 41 1025.3 3.8 NE 6.9 0.0 0.0
14:11 25.4 10.8 40 1025.3 3.1 E 6.9 0.0 0.0
14:12 25.4 10.8 40 1025.3 3.8 S 6.0 0.0 0.0
14:13 25.4 10.8 40 1025.2 3.1 N 6.0 0.0 0.0
14:14 25.4 11.2 41 1025.3 5.4 SE 6.0 0.0 0.0
14:15 25.4 10.8 40 1025.2 4.5 SE 6.0 0.0 0.0
14:16 25.4 11.6 42 1025.2 7.6 S 7.6 0.0 0.0
14:17 25.4 11.2 41 1025.4 6.0 SE 7.6 0.0 0.0
14:18 25.4 11.6 42 1025.3 7.6 S 7.6 0.0 0.0
14:19 25.3 11.8 43 1025.3 6.0 SE 7.6 0.0 0.0
14:21 25.3 11.5 42 1025.2 4.5 NE 7.6 0.0 0.0
14:22 25.4 11.6 42 1025.2 4.5 NE 7.6 0.0 0.0
14:23 25.4 11.2 41 1025.1 3.1 SE 7.6 0.0 0.0
14:24 25.5 11.7 42 1025.3 3.8 SE 7.6 0.0 0.0
14:25 25.5 11.3 41 1025.3 6.0 SE 7.6 0.0 0.0
14:26 25.5 11.3 41 1025.3 5.4 SW 7.6 0.0 0.0
14:27 25.5 10.9 40 1025.1 3.1 NE 7.6 0.0 0.0
14:28 25.5 11.3 41 1025.2 3.8 SE 6.0 0.0 0.0
14:29 25.5 11.3 41 1025.2 3.8 NNE 6.0 0.0 0.0
14:30 25.4 10.8 40 1025.2 6.9 SE 6.9 0.0 0.0
14:31 25.4 10.8 40 1025.2 7.6 E 7.6 0.0 0.0
14:32 25.3 10.7 40 1025.2 6.9 SE 7.6 0.0 0.0
14:33 25.3 11.1 41 1025.1 6.0 SE 7.6 0.0 0.0
14:34 25.3 11.1 41 1025.3 5.4 E 7.6 0.0 0.0
14:35 25.2 10.7 40 1025.1 3.1 N 7.6 0.0 0.0
14:36 25.2 10.7 40 1025.3 5.4 E 7.6 0.0 0.0
14:37 25.2 11.4 42 1025.1 7.6 N 7.6 0.0 0.0
14:38 25.3 11.1 41 1025.1 4.5 NE 7.6 0.0 0.0
14:39 25.5 11.7 42 1025.1 3.8 NE 7.6 0.0 0.0
14:40 25.5 11.3 41 1025.3 6.9 NE 7.6 0.0 0.0
14:41 25.6 11.0 40 1025.2 4.5 ENE 7.6 0.0 0.0
14:42 25.7 11.1 40 1025.2 10.7 S 10.7 0.0 0.0
14:43 25.7 11.1 40 1025.2 4.5 N 10.7 0.0 0.0
14:44 25.6 11.0 40 1025.3 6.0 SE 10.7 0.0 0.0
14:45 25.6 11.0 40 1025.1 5.4 SE 10.7 0.0 0.0
14:46 25.6 11.4 41 1025.1 3.8 S 10.7 0.0 0.0
14:47 25.6 11.4 41 1025.1 4.5 NW 10.7 0.0 0.0
14:48 25.6 11.4 41 1025.3 6.9 NW 10.7 0.0 0.0
14:49 25.6 11.4 41 1025.3 5.4 N 10.7 0.0 0.0
14:50 25.7 11.1 40 1025.2 6.0 NE 10.7 0.0 0.0
14:51 25.7 11.5 41 1025.2 4.5 N 10.7 0.0 0.0
14:52 25.7 10.7 39 1025.2 2.2 NE 10.7 0.0 0.0
14:53 25.7 11.1 40 1025.2 6.0 NE 6.9 0.0 0.0
14:54 25.6 11.4 41 1025.1 5.4 N 6.9 0.0 0.0
14:55 25.7 11.1 40 1025.0 3.8 SE 6.9 0.0 0.0
14:56 25.7 11.1 40 1025.1 2.2 ENE 6.9 0.0 0.0
14:57 25.7 11.5 41 1025.2 1.6 NW 6.9 0.0 0.0
14:58 25.7 11.1 40 1025.1 3.8 N 6.9 0.0 0.0
14:59 25.7 11.1 40 1025.1 3.1 N 6.0 0.0 0.0
15:00 25.7 11.5 41 1025.1 4.5 SE 6.0 0.0 0.0
15:01 25.7 11.5 41 1025.1 4.5 SE 6.0 0.0 0.0
15:02 25.6 11.0 40 1025.1 3.8 SE 6.0 0.0 0.0
15:03 25.5 11.3 41 1025.1 3.8 S 5.4 0.0 0.0
15:04 25.5 10.9 40 1025.2 6.0 SE 6.0 0.0 0.0
15:05 25.4 10.8 40 1025.0 6.0 S 6.0 0.0 0.0
15:06 25.3 11.8 43 1025.1 4.5 SE 6.0 0.0 0.0
15:07 25.2 11.4 42 1025.1 3.8 N 6.0 0.0 0.0
15:08 25.2 11.8 43 1025.2 6.9 S 6.9 0.0 0.0
15:09 25.1 10.9 41 1025.1 6.9 S 6.9 0.0 0.0
15:10 25.1 10.9 41 1025.2 3.8 SSW 6.9 0.0 0.0
15:11 25.0 11.2 42 1025.2 3.8 N 6.9 0.0 0.0
15:12 25.0 11.6 43 1025.0 2.2 S 6.9 0.0 0.0
15:13 25.0 11.6 43 1025.1 6.9 S 6.9 0.0 0.0
15:14 25.0 11.2 42 1025.1 4.5 NE 6.9 0.0 0.0
15:15 25.0 11.2 42 1025.2 3.8 S 6.9 0.0 0.0
15:16 25.0 11.2 42 1025.3 5.4 S 6.9 0.0 0.0
15:17 25.0 11.2 42 1025.1 4.5 N 6.9 0.0 0.0
15:18 25.0 11.6 43 1025.3 1.6 N 6.9 0.0 0.0
15:19 25.1 12.0 44 1025.2 5.4 SE 6.9 0.0 0.0
15:20 25.2 11.4 42 1025.0 4.5 S 6.9 0.0 0.0
15:21 25.2 11.4 42 1025.2 3.8 WSW 6.9 0.0 0.0
15:22 25.2 11.4 42 1025.0 3.8 SE 6.9 0.0 0.0
15:23 25.2 11.4 42 1025.2 7.6 S 7.6 0.0 0.0
15:24 25.2 11.4 42 1025.1 6.9 SW 7.6 0.0 0.0
15:25 25.1 12.0 44 1025.0 4.5 S 7.6 0.0 0.0
15:26 25.1 11.3 42 1025.2 6.0 SE 7.6 0.0 0.0
15:27 25.1 11.3 42 1025.2 7.6 SE 7.6 0.0 0.0
15:28 25.1 11.3 42 1025.2 7.6 SE 7.6 0.0 0.0
15:29 24.9 11.1 42 1025.1 4.5 S 7.6 0.0 0.0
15:30 24.9 11.5 43 1025.0 6.0 SW 7.6 0.0 0.0
15:31 24.8 11.7 44 1025.1 5.4 SW 7.6 0.0 0.0
15:32 24.9 11.5 43 1025.0 6.0 SW 7.6 0.0 0.0
15:33 24.9 11.8 44 1025.0 12.1 SE 12.1 0.0 0.0
15:34 24.9 11.8 44 1025.0 7.6 S 12.1 0.0 0.0
15:35 24.9 11.5 43 1025.2 7.6 SW 12.1 0.0 0.0
15:36 24.8 11.7 44 1025.3 6.0 SW 12.1 0.0 0.0
15:37 24.8 11.7 44 1025.1 6.9 S 12.1 0.0 0.0
15:38 24.8 11.4 43 1025.1 4.5 S 12.1 0.0 0.0
15:39 24.7 11.6 44 1025.2 3.8 S 12.1 0.0 0.0
15:40 24.7 11.3 43 1025.0 3.1 S 12.1 0.0 0.0
15:41 24.6 11.2 43 1025.2 3.1 S 12.1 0.0 0.0
15:42 24.7 12.0 45 1025.1 8.3 SSE 12.1 0.0 0.0
15:43 24.8 11.7 44 1025.1 6.0 S 8.3 0.0 0.0
15:44 24.8 11.7 44 1025.1 5.4 S 8.3 0.0 0.0
15:45 24.7 12.0 45 1025.1 6.0 S 8.3 0.0 0.0
15:46 24.7 12.0 45 1025.2 6.0 S 8.3 0.0 0.0
15:47 24.7 12.0 45 1025.2 4.5 S 8.3 0.0 0.0
15:48 24.6 11.9 45 1025.2 5.4 S 8.3 0.0 0.0
15:49 24.7 12.0 45 1025.2 6.9 S 8.3 0.0 0.0
15:50 24.6 11.6 44 1025.1 7.6 SW 8.3 0.0 0.0
15:51 24.6 11.6 44 1025.1 7.6 S 8.3 0.0 0.0
15:52 24.6 11.6 44 1025.2 6.0 NW 8.3 0.0 0.0
15:53 24.6 11.9 45 1025.0 4.5 S 7.6 0.0 0.0
15:54 24.6 11.9 45 1025.1 8.3 S 8.3 0.0 0.0
15:55 24.7 12.0 45 1025.2 6.0 S 8.3 0.0 0.0
15:56 24.8 12.1 45 1025.0 7.6 SW 8.3 0.0 0.0
15:57 24.8 11.7 44 1025.1 7.6 SW 8.3 0.0 0.0
15:58 24.9 11.1 42 1025.1 6.9 S 8.3 0.0 0.0
15:59 24.8 11.0 42 1025.1 3.8 S 8.3 0.0 0.0
16:00 24.7 11.3 43 1025.0 8.3 NW 8.3 0.0 0.0
16:01 24.7 11.3 43 1025.1 8.3 NW 8.3 0.0 0.0
16:02 24.6 11.6 44 1025.1 8.3 W 8.3 0.0 0.0
16:03 24.6 11.6 44 1024.9 7.6 WSW 8.3 0.0 0.0
16:04 24.6 11.2 43 1025.1 6.0 SW 8.3 0.0 0.0
16:05 24.6 11.6 44 1025.1 4.5 SW 8.3 0.0 0.0
16:06 24.6 11.2 43 1025.1 6.9 S 8.3 0.0 0.0
16:07 24.6 11.6 44 1024.9 7.6 SW 8.3 0.0 0.0
16:08 24.6 11.2 43 1025.2 4.5 SW 8.3 0.0 0.0
16:09 24.7 12.0 45 1025.0 3.1 SW 8.3 0.0 0.0
16:10 24.8 12.1 45 1025.0 6.0 NNW 8.3 0.0 0.0
16:11 24.8 12.1 45 1025.2 8.3 SW 8.3 0.0 0.0
16:12 24.8 12.1 45 1025.0 6.9 S 8.3 0.0 0.0
16:13 24.7 12.0 45 1025.1 5.4 S 8.3 0.0 0.0
16:14 24.6 12.2 46 1025.1 6.9 SE 8.3 0.0 0.0
16:15 24.6 12.2 46 1024.9 6.9 SE 8.3 0.0 0.0
16:16 24.6 12.2 46 1024.9 5.4 S 8.3 0.0 0.0
16:17 24.7 12.3 46 1024.9 5.4 S 8.3 0.0 0.0
16:18 24.7 12.0 45 1025.0 5.4 W 8.3 0.0 0.0
16:19 24.8 12.1 45 1025.0 5.4 W 8.3 0.0 0.0
16:20 24.9 12.2 45 1025.0 5.4 SW 8.3 0.0 0.0
16:21 25.1 12.4 45 1025.0 2.2 E 8.3 0.0 0.0
16:22 25.1 12.7 46 1024.9 0.7 NE 6.9 0.0 0.0
16:23 25.2 12.1 44 1025.0 4.5 NW 6.9 0.0 0.0
16:24 25.3 12.5 45 1024.9 1.6 NW 6.9 0.0 0.0
16:25 25.4 12.3 44 1024.8 3.8 S 6.9 0.0 0.0
16:26 25.4 12.3 44 1025.2 4.5 SE 5.4 0.0 0.0
16:27 25.2 12.1 44 1024.8 3.8 NW 5.4 0.0 0.0
16:28 25.2 12.4 45 1024.9 3.1 N 5.4 0.0 0.0
16:29 25.2 12.8 46 1025.1 4.5 SW 5.4 0.0 0.0
16:30 25.3 12.5 45 1024.9 3.8 NW 6.0 0.0 0.0
16:31 25.4 12.6 45 1025.0 3.1 NW 6.0 0.0 0.0
16:32 25.5 12.7 45 1025.0 3.1 W 6.0 0.0 0.0
16:33 25.5 12.7 45 1024.9 2.2 N 6.0 0.0 0.0
16:34 25.7 13.2 46 1025.1 3.8 N 6.0 0.0 0.0
16:35 25.8 13.0 45 1025.1 3.1 S 6.0 0.0 0.0
16:36 25.8 13.0 45 1025.1 3.1 S 6.0 0.0 0.0
16:37 25.9 12.7 44 1024.9 6.0 W 6.0 0.0 0.0
16:38 25.8 12.3 43 1025.0 4.5 W 6.0 0.0 0.0
16:39 25.9 12.4 43 1025.0 5.4 N 6.0 0.0 0.0
16:40 25.8 12.6 44 1025.0 3.8 NW 6.0 0.0 0.0
16:41 25.7 11.8 42 1025.0 5.4 W 6.0 0.0 0.0
16:42 25.6 12.5 44 1025.1 4.5 NW 6.0 0.0 0.0
16:43 25.6 12.5 44 1025.0 4.5 WSW 6.0 0.0 0.0
16:44 25.5 12.4 44 1025.0 5.4 NW 6.0 0.0 0.0
16:45 25.5 12.4 44 1025.0 9.2 SW 9.2 0.0 0.0
16:46 25.5 12.0 43 1025.0 6.9 SW 9.2 0.0 0.0
16:47 25.4 11.9 43 1025.0 6.9 SW 9.2 0.0 0.0
16:48 25.3 12.2 44 1024.9 5.4 SW 9.2 0.0 0.0
16:49 25.3 12.2 44 1025.0 3.8 SW 9.2 0.0 0.0
16:50 25.3 12.9 46 1025.0 3.8 NW 9.2 0.0 0.0
16:51 25.3 12.5 45 1025.0 6.9 SW 9.2 0.0 0.0
16:52 25.3 12.2 44 1025.0 4.5 W 9.2 0.0 0.0
16:53 25.3 12.2 44 1025.0 4.5 NW 9.2 0.0 0.0
16:54 25.3 12.5 45 1024.8 2.2 SW 9.2 0.0 0.0
16:55 25.3 12.5 45 1025.0 6.0 N 9.2 0.0 0.0
16:56 25.4 12.6 45 1025.0 3.8 N 9.2 0.0 0.0
16:57 25.4 12.6 45 1024.9 2.2 N 6.9 0.0 0.0
16:58 25.5 12.7 45 1024.9 3.1 NW 6.9 0.0 0.0
16:59 25.5 12.7 45 1024.8 5.4 WNW 6.9 0.0 0.0
17:00 25.5 13.1 46 1024.8 5.4 W 6.9 0.0 0.0
17:01 25.5 13.1 46 1024.9 5.4 W 6.9 0.0 0.0
17:02 25.6 12.8 45 1024.8 6.0 W 6.0 0.0 0.0
17:03 25.5 13.1 46 1024.8 5.4 NE 6.0 0.0 0.0
17:04 25.6 13.1 46 1024.7 3.8 NW 6.0 0.0 0.0
17:05 25.6 12.8 45 1024.7 3.8 N 6.0 0.0 0.0
17:06 25.6 12.5 44 1024.7 4.5 NW 6.0 0.0 0.0
17:07 25.5 12.4 44 1024.7 4.5 NW 6.0 0.0 0.0
17:08 25.5 12.4 44 1024.8 5.4 W 6.0 0.0 0.0
17:09 25.4 11.9 43 1025.0 5.4 SW 6.0 0.0 0.0
17:10 25.3 12.5 45 1024.9 2.2 W 6.0 0.0 0.0
17:11 25.3 11.8 43 1024.9 5.4 NW 6.0 0.0 0.0
17:12 25.2 12.1 44 1024.9 3.1 NW 6.0 0.0 0.0
17:13 25.2 12.4 45 1024.8 6.0 W 6.0 0.0 0.0
17:14 25.2 12.4 45 1024.8 6.0 W 6.0 0.0 0.0
17:15 25.2 12.1 44 1024.8 6.0 NW 6.0 0.0 0.0
17:16 25.2 12.4 45 1024.9 9.2 W 9.2 0.0 0.0
17:17 25.1 11.7 43 1024.8 7.6 W 9.2 0.0 0.0
17:18 25.1 12.0 44 1024.8 4.5 NW 9.2 0.0 0.0
17:19 25.1 12.0 44 1024.7 3.8 NW 9.2 0.0 0.0
17:20 25.1 12.0 44 1024.8 5.4 N 9.2 0.0 0.0
17:21 25.1 12.0 44 1024.7 3.8 N 9.2 0.0 0.0
17:22 25.1 12.0 44 1024.8 4.5 NW 9.2 0.0 0.0
17:23 25.1 12.4 45 1024.8 2.2 SW 9.2 0.0 0.0
17:24 25.2 12.4 45 1024.7 3.1 NE 9.2 0.0 0.0
17:25 25.2 11.8 43 1024.9 7.6 N 9.2 0.0 0.0
17:26 25.1 11.7 43 1024.8 6.9 NW 7.6 0.0 0.0
17:27 25.1 11.7 43 1024.9 4.5 NW 7.6 0.0 0.0
17:28 25.0 11.6 43 1024.8 6.0 W 7.6 0.0 0.0
17:29 24.9 11.8 44 1024.9 5.4 N 7.6 0.0 0.0
17:30 24.8 11.7 44 1024.8 6.0 N 7.6 0.0 0.0
17:31 24.8 12.1 45 1024.8 3.8 NW 7.6 0.0 0.0
17:32 24.8 12.1 45 1024.8 3.1 WSW 7.6 0.0 0.0
17:33 24.8 12.1 45 1024.8 3.8 N 7.6 0.0 0.0
17:34 24.9 12.2 45 1024.8 6.0 NW 7.6 0.0 0.0
17:35 24.8 11.4 43 1024.8 6.0 W 7.6 0.0 0.0
17:36 24.7 12.0 45 1024.8 5.4 NW 7.6 0.0 0.0
17:37 24.7 12.0 45 1024.8 4.5 NW 6.0 0.0 0.0
17:38 24.7 12.0 45 1024.9 3.8 NE 6.0 0.0 0.0
17:39 24.7 12.0 45 1024.8 3.1 NE 6.0 0.0 0.0
17:40 24.6 11.9 45 1024.9 4.5 SW 6.0 0.0 0.0
17:41 24.7 12.3 46 1024.8 4.5 NW 6.0 0.0 0.0
17:43 24.6 11.9 45 1024.8 3.8 NW 6.0 0.0 0.0
17:44 24.6 11.9 45 1024.8 3.8 N 6.0 0.0 0.0
17:45 24.5 11.8 45 1024.8 3.1 N 6.0 0.0 0.0
17:46 24.5 12.1 46 1024.8 2.2 NW 6.0 0.0 0.0
17:47 24.5 12.1 46 1024.9 5.4 NE 6.0 0.0 0.0
17:48 24.6 11.9 45 1024.8 5.4 NW 6.0 0.0 0.0
17:49 24.5 11.8 45 1024.8 5.4 N 6.0 0.0 0.0
17:50 24.5 11.5 44 1024.8 5.4 NE 6.0 0.0 0.0
17:51 24.5 11.5 44 1024.8 5.4 NE 6.0 0.0 0.0
17:52 24.4 11.7 45 1024.8 5.4 SW 6.9 0.0 0.0
17:53 24.4 11.7 45 1024.8 5.4 NW 6.9 0.0 0.0
17:54 24.4 11.4 44 1024.9 5.4 NW 6.9 0.0 0.0
17:55 24.3 11.3 44 1024.7 4.5 NE 6.9 0.0 0.0
17:56 24.2 11.2 44 1024.8 5.4 N 6.9 0.0 0.0
17:57 24.1 11.1 44 1024.8 6.0 N 6.9 0.0 0.0
17:58 24.1 11.1 44 1024.8 5.4 N 6.9 0.0 0.0
17:59 24.1 11.4 45 1024.9 3.1 N 6.9 0.0 0.0
18:00 24.0 11.0 44 1024.8 3.8 NE 6.9 0.0 0.0
18:01 24.0 11.4 45 1024.8 3.8 NE 6.9 0.0 0.0
18:02 23.9 11.3 45 1024.9 4.5 NW 6.0 0.0 0.0
18:03 24.0 11.4 45 1024.7 3.1 NW 6.0 0.0 0.0
18:04 24.0 11.4 45 1024.8 3.8 W 6.0 0.0 0.0
18:05 23.9 10.9 44 1025.0 6.0 E 6.0 0.0 0.0
18:06 23.8 10.8 44 1024.9 3.1 NW 6.0 0.0 0.0
18:07 23.8 10.8 44 1024.9 6.0 NW 6.0 0.0 0.0
18:08 23.7 10.7 44 1024.8 5.4 NW 6.0 0.0 0.0
18:09 23.7 10.7 44 1024.7 7.6 N 7.6 0.0 0.0
18:10 23.7 10.7 44 1024.7 7.6 N 7.6 0.0 0.0
18:11 23.6 10.7 44 1024.8 6.9 N 7.6 0.0 0.0
18:12 23.6 10.7 44 1024.8 6.9 NW 7.6 0.0 0.0
18:13 23.5 10.6 44 1024.8 6.0 NW 7.6 0.0 0.0
18:14 23.5 10.6 44 1024.8 5.4 NW 7.6 0.0 0.0
18:15 23.5 10.6 44 1024.8 4.5 NW 7.6 0.0 0.0
18:16 23.5 10.6 44 1024.8 2.2 N 7.6 0.0 0.0
18:17 23.5 10.6 44 1024.8 4.5 W 7.6 0.0 0.0
18:18 23.5 10.6 44 1024.8 5.4 NE 7.6 0.0 0.0
18:19 23.5 10.6 44 1024.7 6.9 NW 7.6 0.0 0.0
18:20 23.5 10.6 44 1024.7 3.1 NW 6.9 0.0 0.0
18:21 23.5 10.6 44 1024.9 3.1 NE 6.9 0.0 0.0
18:22 23.5 10.6 44 1024.8 6.0 NW 6.9 0.0 0.0
18:23 23.5 10.6 44 1024.7 6.0 WNW 6.9 0.0 0.0
18:24 23.5 10.2 43 1024.8 6.0 N 6.9 0.0 0.0
18:25 23.5 9.9 42 1024.8 8.3 NW 8.3 0.0 0.0
18:26 23.5 9.9 42 1024.8 6.0 N 8.3 0.0 0.0
18:27 23.5 9.9 42 1024.8 6.9 NW 8.3 0.0 0.0
18:28 23.5 9.9 42 1025.0 5.4 N 8.3 0.0 0.0
18:29 23.5 9.9 42 1024.8 4.5 NE 8.3 0.0 0.0
18:30 23.5 9.9 42 1024.7 6.9 NW 8.3 0.0 0.0
18:31 23.4 9.8 42 1024.8 6.9 NW 8.3 0.0 0.0
18:32 23.4 9.8 42 1024.8 5.4 N 8.3 0.0 0.0
18:33 23.4 9.4 41 1024.7 4.5 N 8.3 0.0 0.0
18:34 23.4 9.4 41 1024.8 2.2 N 8.3 0.0 0.0
18:35 23.4 9.4 41 1024.8 4.5 W 8.3 0.0 0.0
18:36 23.4 9.4 41 1024.7 3.8 N 6.9 0.0 0.0
18:37 23.4 9.4 41 1024.8 5.4 NW 6.9 0.0 0.0
18:38 23.4 9.0 40 1024.9 3.1 W 6.9 0.0 0.0
18:39 23.4 9.4 41 1024.8 5.4 NW 6.9 0.0 0.0
18:40 23.5 9.5 41 1024.9 3.8 N 6.9 0.0 0.0
18:41 23.6 10.0 42 1025.0 3.1 N 6.0 0.0 0.0
18:42 23.6 10.0 42 1024.9 4.5 NW 5.4 0.0 0.0
18:43 23.6 9.6 41 1024.8 3.8 NW 5.4 0.0 0.0
18:44 23.6 9.6 41 1024.9 5.4 N 5.4 0.0 0.0
18:45 23.7 9.7 41 1024.9 5.4 NW 5.4 0.0 0.0
18:46 23.7 9.7 41 1025.0 4.5 N 5.4 0.0 0.0
18:47 23.7 9.7 41 1024.9 3.1 WNW 5.4 0.0 0.0
18:48 23.7 9.3 40 1024.9 4.5 WNW 5.4 0.0 0.0
18:49 23.7 9.3 40 1024.9 5.4 N 5.4 0.0 0.0
18:50 23.6 9.2 40 1024.9 3.1 NW 5.4 0.0 0.0
18:51 23.7 9.7 41 1024.9 3.1 N 5.4 0.0 0.0
18:52 23.7 9.7 41 1024.9 2.2 N 5.4 0.0 0.0
18:53 23.7 9.7 41 1024.8 3.1 WNW 5.4 0.0 0.0
18:54 23.7 9.7 41 1025.0 4.5 N 5.4 0.0 0.0
18:55 23.7 9.3 40 1024.9 4.5 ENE 5.4 0.0 0.0
18:56 23.7 9.3 40 1024.9 3.1 N 5.4 0.0 0.0
18:57 23.8 9.4 40 1024.8 1.6 NW 5.4 0.0 0.0
18:58 23.8 9.4 40 1024.8 2.2 W 5.4 0.0 0.0
18:59 23.8 9.4 40 1024.9 3.1 N 4.5 0.0 0.0
19:00 23.8 9.4 40 1024.9 1.6 NW 4.5 0.0 0.0
19:01 23.8 9.0 39 1024.8 3.1 NW 4.5 0.0 0.0
19:02 23.8 9.0 39 1024.8 3.1 N 4.5 0.0 0.0
19:03 23.9 9.1 39 1024.8 3.1 N 4.5 0.0 0.0
19:04 23.8 9.4 40 1024.9 2.2 N 4.5 0.0 0.0
19:05 23.9 9.1 39 1024.8 3.8 NW 4.5 0.0 0.0
19:06 23.8 9.4 40 1024.9 3.8 NE 4.5 0.0 0.0
19:07 23.8 9.0 39 1024.9 3.1 N 4.5 0.0 0.0
19:08 23.8 9.0 39 1024.9 2.2 NNE 4.5 0.0 0.0
19:09 23.8 9.4 40 1024.9 3.1 N 4.5 0.0 0.0
19:10 23.8 9.4 40 1024.9 3.1 N 4.5 0.0 0.0
19:11 23.8 9.4 40 1024.7 3.1 N 5.4 0.0 0.0
19:12 23.8 9.4 40 1024.8 3.8 N 5.4 0.0 0.0
19:13 23.8 9.4 40 1024.9 3.8 NW 5.4 0.0 0.0
19:14 23.8 9.4 40 1024.8 4.5 N 5.4 0.0 0.0
19:15 23.7 9.3 40 1024.9 3.8 NW 5.4 0.0 0.0
19:16 23.7 9.3 40 1024.8 4.5 WNW 5.4 0.0 0.0
19:17 23.7 9.3 40 1025.0 3.1 WNW 5.4 0.0 0.0
19:18 23.7 9.3 40 1025.0 3.8 N 5.4 0.0 0.0
19:19 23.6 9.2 40 1024.9 4.5 N 5.4 0.0 0.0
19:21 23.6 9.6 41 1024.8 3.1 NW 4.5 0.0 0.0
19:22 23.6 9.6 41 1024.9 4.5 NW 4.5 0.0 0.0
19:23 23.5 9.5 41 1024.9 3.1 NW 4.5 0.0 0.0
19:24 23.5 9.5 41 1025.0 2.2 N 4.5 0.0 0.0
19:25 23.5 9.5 41 1025.0 4.5 WNW 4.5 0.0 0.0
19:26 23.5 9.9 42 1025.0 2.2 NW 4.5 0.0 0.0
19:27 23.5 9.9 42 1024.8 3.1 NW 4.5 0.0 0.0
19:28 23.5 9.9 42 1025.0 3.1 N 4.5 0.0 0.0
19:29 23.4 9.8 42 1025.1 3.1 N 4.5 0.0 0.0
19:30 23.4 9.8 42 1025.0 3.1 N 4.5 0.0 0.0
19:31 23.4 9.8 42 1025.1 2.2 NW 4.5 0.0 0.0
19:32 23.4 9.8 42 1024.9 1.6 NW 4.5 0.0 0.0
19:33 23.4 9.8 42 1024.9 1.6 N 4.5 0.0 0.0
19:34 23.4 9.8 42 1024.8 1.6 NW 4.5 0.0 0.0
19:35 23.4 9.8 42 1024.9 2.2 NW 4.5 0.0 0.0
19:36 23.4 9.8 42 1024.8 3.8 NW 3.8 0.0 0.0
19:37 23.4 9.8 42 1024.9 1.6 NW 3.8 0.0 0.0
19:38 23.4 9.8 42 1024.9 2.2 NW 3.8 0.0 0.0
19:40 23.3 9.7 42 1024.8 3.1 W 3.8 0.0 0.0
19:41 23.3 9.3 41 1024.9 2.2 N 3.8 0.0 0.0
19:42 23.3 9.3 41 1024.8 3.1 N 3.8 0.0 0.0
19:43 23.2 9.2 41 1025.0 3.1 NW 3.8 0.0 0.0
19:44 23.2 9.2 41 1024.9 2.2 N 3.8 0.0 0.0
19:45 23.2 9.2 41 1024.8 3.8 N 3.8 0.0 0.0
19:46 23.2 9.2 41 1024.8 2.2 NW 3.8 0.0 0.0
19:47 23.2 9.2 41 1024.9 1.6 N 3.8 0.0 0.0
19:48 23.2 9.2 41 1024.9 2.2 NW 3.8 0.0 0.0
19:49 23.1 9.1 41 1024.9 3.1 N 3.8 0.0 0.0
19:50 23.1 9.1 41 1024.8 3.1 N 3.8 0.0 0.0
19:51 23.1 9.1 41 1024.9 1.6 NE 3.8 0.0 0.0
19:52 23.1 9.1 41 1025.0 2.2 N 3.8 0.0 0.0
19:53 23.1 9.1 41 1025.0 3.1 N 3.8 0.0 0.0
19:54 23.0 9.4 42 1025.0 2.2 N 3.8 0.0 0.0
19:55 23.0 9.4 42 1025.0 1.6 N 3.8 0.0 0.0
19:56 23.0 9.4 42 1025.1 2.2 N 3.1 0.0 0.0
19:57 23.0 9.4 42 1024.9 2.2 NE 3.1 0.0 0.0
19:59 22.9 9.7 43 1024.9 2.2 N 3.1 0.0 0.0
20:00 22.9 9.7 43 1025.1 1.6 NE 3.1 0.0 0.0
20:01 22.8 9.6 43 1024.8 1.6 NE 3.1 0.0 0.0
20:02 22.8 9.9 44 1024.8 3.1 NE 3.1 0.0 0.0
20:03 22.7 9.8 44 1025.0 2.2 NNE 3.1 0.0 0.0
20:04 22.7 9.8 44 1024.9 2.2 NNE 3.1 0.0 0.0
20:05 22.6 9.7 44 1025.0 3.1 NW 3.1 0.0 0.0
20:06 22.6 9.7 44 1025.0 3.1 NW 3.1 0.0 0.0
20:07 22.5 9.7 44 1024.9 2.2 NE 3.1 0.0 0.0
20:08 22.5 9.7 44 1024.9 2.2 N 3.1 0.0 0.0
20:09 22.5 9.7 44 1024.9 2.2 NW 3.1 0.0 0.0
20:10 22.4 9.6 44 1025.1 2.2 NE 3.1 0.0 0.0
20:11 22.3 9.8 45 1025.0 2.2 NE 3.1 0.0 0.0
20:12 22.3 9.8 45 1025.0 2.2 NE 3.1 0.0 0.0
20:13 22.2 9.7 45 1025.1 3.1 NE 3.1 0.0 0.0
20:14 22.2 9.7 45 1024.9 3.8 N 3.8 0.0 0.0
20:15 22.1 9.6 45 1024.9 3.8 NE 3.8 0.0 0.0
20:16 22.0 9.5 45 1024.9 2.2 NW 3.8 0.0 0.0
20:18 21.9 9.4 45 1025.0 3.1 NE 3.8 0.0 0.0
20:19 21.8 9.4 45 1024.8 2.2 NE 3.8 0.0 0.0
20:20 21.8 9.7 46 1025.1 2.2 NW 3.8 0.0 0.0
20:21 21.7 9.6 46 1025.0 2.2 N 3.8 0.0 0.0
20:22 21.6 9.5 46 1025.0 2.2 NW 3.8 0.0 0.0
20:23 21.5 9.1 45 1025.1 1.6 NE 3.8 0.0 0.0
20:24 21.5 9.4 46 1025.0 1.6 WSW 3.8 0.0 0.0
20:25 21.4 9.0 45 1025.1 1.6 N 3.1 0.0 0.0
20:26 21.4 9.3 46 1025.0 3.1 N 3.1 0.0 0.0
20:27 21.3 8.9 45 1025.1 1.6 NE 3.1 0.0 0.0
20:28 21.3 9.2 46 1025.0 0.7 N 3.1 0.0 0.0
20:29 21.2 9.1 46 1024.9 1.6 N 3.1 0.0 0.0
20:30 21.2 9.1 46 1025.0 1.6 N 3.1 0.0 0.0
20:31 21.1 9.0 46 1024.9 1.6 N 3.1 0.0 0.0
20:32 21.1 9.0 46 1025.1 2.2 N 3.1 0.0 0.0
20:33 21.0 9.3 47 1025.1 1.6 N 3.1 0.0 0.0
20:34 21.0 9.3 47 1025.2 1.6 N 3.1 0.0 0.0
20:35 20.9 9.2 47 1025.0 1.6 NE 3.1 0.0 0.0
20:37 20.8 9.1 47 1025.0 2.2 N 3.1 0.0 0.0
20:38 20.8 9.1 47 1025.0 3.1 N 3.1 0.0 0.0
20:39 20.7 9.0 47 1025.1 3.1 N 3.1 0.0 0.0
20:40 20.6 9.2 48 1025.0 2.2 NE 3.1 0.0 0.0
20:41 20.6 9.2 48 1025.0 2.2 NE 3.1 0.0 0.0
20:42 20.6 9.2 48 1025.1 2.2 NE 3.1 0.0 0.0
20:43 20.5 9.1 48 1025.0 2.2 NE 3.1 0.0 0.0
20:44 20.5 9.4 49 1025.1 1.6 N 3.1 0.0 0.0
20:45 20.4 9.3 49 1025.0 2.2 NE 3.1 0.0 0.0
20:46 20.4 9.3 49 1025.1 1.6 NE 3.1 0.0 0.0
20:47 20.3 9.2 49 1025.0 2.2 NE 3.1 0.0 0.0
20:48 20.3 9.5 50 1025.2 2.2 N 3.1 0.0 0.0
20:49 20.3 9.5 50 1025.1 2.2 NE 3.1 0.0 0.0
20:50 20.2 9.5 50 1025.0 1.6 N 2.2 0.0 0.0
20:51 20.1 9.4 50 1025.0 1.6 NE 2.2 0.0 0.0
20:52 20.1 9.7 51 1025.2 2.2 NE 2.2 0.0 0.0
20:53 20.1 9.7 51 1025.2 2.2 NW 2.2 0.0 0.0
20:54 20.0 9.6 51 1025.1 2.2 N 2.2 0.0 0.0
20:56 19.9 9.5 51 1025.2 1.6 N 2.2 0.0 0.0
20:57 19.8 9.4 51 1025.2 1.6 NW 2.2 0.0 0.0
20:58 19.8 9.7 52 1025.2 1.6 NE 2.2 0.0 0.0
20:59 19.8 9.7 52 1025.2 2.2 N 2.2 0.0 0.0
21:00 19.7 9.6 52 1025.2 2.2 N 2.2 0.0 0.0
21:01 19.6 9.5 52 1025.2 2.2 N 2.2 0.0 0.0
21:02 19.6 9.5 52 1025.2 2.2 N 2.2 0.0 0.0
21:03 19.5 9.4 52 1025.1 1.6 N 2.2 0.0 0.0
21:04 19.5 9.7 53 1025.3 1.6 WNW 2.2 0.0 0.0
21:05 19.5 9.7 53 1025.2 2.2 N 2.2 0.0 0.0
21:06 19.4 9.6 53 1025.2 1.6 N 2.2 0.0 0.0
21:07 19.3 9.5 53 1025.2 2.2 N 2.2 0.0 0.0
21:08 19.3 9.5 53 1025.2 2.2 N 2.2 0.0 0.0
21:09 19.3 9.5 53 1025.2 2.2 N 2.2 0.0 0.0
21:10 19.2 9.4 53 1025.2 1.6 N 2.2 0.0 0.0
21:11 19.2 9.4 53 1025.3 1.6 N 2.2 0.0 0.0
21:12 19.2 9.4 53 1025.2 2.2 N 2.2 0.0 0.0
21:13 19.1 9.6 54 1025.2 2.2 NW 2.2 0.0 0.0
21:14 19.1 9.6 54 1025.2 1.6 NW 2.2 0.0 0.0
21:15 19.0 9.5 54 1025.3 2.2 N 2.2 0.0 0.0
21:16 19.0 9.5 54 1025.2 2.2 N 2.2 0.0 0.0
21:18 18.9 9.4 54 1025.2 1.6 NW 2.2 0.0 0.0
21:19 18.9 9.4 54 1025.3 1.6 N 2.2 0.0 0.0
21:20 18.8 9.3 54 1025.2 1.6 N 2.2 0.0 0.0
21:21 18.8 9.3 54 1025.2 2.2 N 2.2 0.0 0.0
21:22 18.8 9.3 54 1025.1 2.2 N 2.2 0.0 0.0
21:23 18.7 9.2 54 1025.2 1.6 NE 2.2 0.0 0.0
21:24 18.7 9.2 54 1025.3 2.2 N 2.2 0.0 0.0
21:25 18.6 9.1 54 1025.2 0.7 N 2.2 0.0 0.0
21:26 18.6 9.1 54 1025.2 0.7 N 2.2 0.0 0.0
21:27 18.6 9.1 54 1025.1 1.6 NE 2.2 0.0 0.0
21:28 18.5 9.0 54 1025.1 1.6 N 2.2 0.0 0.0
21:29 18.5 9.0 54 1025.3 2.2 N 2.2 0.0 0.0
21:30 18.5 9.0 54 1025.2 2.2 N 2.2 0.0 0.0
21:31 18.4 8.7 53 1025.3 2.2 N 2.2 0.0 0.0
21:32 18.4 8.7 53 1025.3 2.2 E 2.2 0.0 0.0
21:33 18.3 8.6 53 1025.3 2.2 NW 2.2 0.0 0.0
21:34 18.3 8.6 53 1025.2 1.6 N 2.2 0.0 0.0
21:35 18.3 8.6 53 1025.2 2.2 E 2.2 0.0 0.0
21:36 18.2 8.5 53 1025.3 1.6 NW 2.2 0.0 0.0
21:38 18.1 8.7 54 1025.3 1.6 N 2.2 0.0 0.0
21:39 18.1 8.7 54 1025.2 1.6 N 2.2 0.0 0.0
21:40 18.0 8.6 54 1025.3 2.2 N 2.2 0.0 0.0
21:41 18.0 8.6 54 1025.4 3.1 NE 3.1 0.0 0.0
21:42 17.9 8.7 55 1025.4 2.2 N 3.1 0.0 0.0
21:43 17.9 8.7 55 1025.5 2.2 N 3.1 0.0 0.0
21:44 17.8 8.6 55 1025.5 2.2 N 3.1 0.0 0.0
21:45 17.8 8.6 55 1025.5 2.2 N 3.1 0.0 0.0
21:46 17.8 8.6 55 1025.5 2.2 NW 3.1 0.0 0.0
21:47 17.7 8.8 56 1025.4 3.1 N 3.1 0.0 0.0
21:48 17.7 8.8 56 1025.5 3.1 N 3.1 0.0 0.0
21:49 17.6 8.7 56 1025.5 2.2 N 3.1 0.0 0.0
21:50 17.6 9.0 57 1025.5 2.2 N 3.1 0.0 0.0
21:51 17.6 9.0 57 1025.4 2.2 N 3.1 0.0 0.0
21:52 17.5 8.9 57 1025.5 2.2 N 3.1 0.0 0.0
21:53 17.5 9.2 58 1025.5 1.6 N 3.1 0.0 0.0
21:54 17.5 9.2 58 1025.6 1.6 NE 3.1 0.0 0.0
21:55 17.4 9.1 58 1025.5 1.6 N 3.1 0.0 0.0
21:57 17.3 9.2 59 1025.6 1.6 N 3.1 0.0 0.0
21:58 17.3 9.2 59 1025.5 1.6 N 3.1 0.0 0.0
21:59 17.3 9.2 59 1025.5 2.2 NE 3.1 0.0 0.0
22:00 17.3 9.2 59 1025.5 1.6 NE 3.1 0.0 0.0
22:01 17.2 9.1 59 1025.6 2.2 NE 2.2 0.0 0.0
22:02 17.2 9.1 59 1025.6 2.2 NNE 2.2 0.0 0.0
22:03 17.2 9.1 59 1025.6 2.2 NNE 2.2 0.0 0.0
22:04 17.2 9.1 59 1025.7 3.1 NW 3.1 0.0 0.0
22:05 17.1 9.0 59 1025.7 3.1 N 3.1 0.0 0.0
22:06 17.1 9.3 60 1025.7 3.1 N 3.1 0.0 0.0
22:07 17.1 9.3 60 1025.6 3.1 NNW 3.1 0.0 0.0
22:08 17.0 9.2 60 1025.7 3.1 NE 3.1 0.0 0.0
22:09 17.0 9.2 60 1025.7 3.1 NE 3.1 0.0 0.0
22:10 17.0 9.2 60 1025.6 2.2 NE 3.1 0.0 0.0
22:11 16.9 9.1 60 1025.7 3.1 N 3.1 0.0 0.0
22:12 16.9 9.1 60 1025.6 3.1 N 3.1 0.0 0.0
22:13 16.9 9.1 60 1025.6 2.2 NE 3.1 0.0 0.0
22:15 16.8 9.2 61 1025.8 1.6 N 3.1 0.0 0.0
22:16 16.7 9.1 61 1025.6 2.2 N 3.1 0.0 0.0
22:17 16.7 9.1 61 1025.6 3.1 N 3.1 0.0 0.0
22:18 16.7 9.1 61 1025.6 2.2 N 3.1 0.0 0.0
22:19 16.7 9.1 61 1025.7 2.2 SE 3.1 0.0 0.0
22:20 16.6 9.1 61 1025.7 2.2 N 3.1 0.0 0.0
22:21 16.6 9.3 62 1025.6 3.1 E 3.1 0.0 0.0
22:22 16.6 9.3 62 1025.6 3.1 E 3.1 0.0 0.0
22:23 16.5 9.2 62 1025.7 3.8 N 3.8 0.0 0.0
22:24 16.5 9.2 62 1025.7 3.1 NE 3.8 0.0 0.0
22:25 16.5 9.2 62 1025.7 2.2 NNE 3.8 0.0 0.0
22:26 16.4 9.1 62 1025.6 3.1 N 3.8 0.0 0.0
22:27 16.4 9.1 62 1025.6 3.1 N 3.8 0.0 0.0
22:28 16.4 9.3 63 1025.8 3.8 NE 3.8 0.0 0.0
22:29 16.3 9.3 63 1025.7 3.1 N 3.8 0.0 0.0
22:30 16.3 9.3 63 1025.5 3.1 N 3.8 0.0 0.0
22:31 16.3 9.3 63 1025.6 2.2 N 3.8 0.0 0.0
22:32 16.2 9.2 63 1025.7 2.2 N 3.8 0.0 0.0
22:33 16.2 9.4 64 1025.6 3.1 NE 3.8 0.0 0.0
22:35 16.1 9.3 64 1025.7 2.2 N 3.8 0.0 0.0
22:36 16.1 9.3 64 1025.7 3.1 NNE 3.8 0.0 0.0
22:37 16.1 9.3 64 1025.6 3.1 E 3.8 0.0 0.0
22:38 16.1 9.3 64 1025.6 3.1 NE 3.1 0.0 0.0
22:39 16.0 9.2 64 1025.6 3.1 N 3.1 0.0 0.0
22:40 16.0 9.4 65 1025.7 3.1 N 3.1 0.0 0.0
22:41 16.0 9.4 65 1025.6 3.1 NW 3.1 0.0 0.0
22:42 16.0 9.4 65 1025.6 3.1 NW 3.1 0.0 0.0
22:43 16.0 9.4 65 1025.5 2.2 NE 3.1 0.0 0.0
22:44 15.9 9.3 65 1025.6 2.2 NE 3.1 0.0 0.0
22:45 15.9 9.3 65 1025.7 3.1 N 3.1 0.0 0.0
22:46 15.9 9.3 65 1025.8 3.1 NE 3.1 0.0 0.0
22:47 15.9 9.3 65 1025.7 3.1 NE 3.1 0.0 0.0
22:48 15.9 9.6 66 1025.6 3.1 N 3.1 0.0 0.0
22:49 15.9 9.6 66 1025.6 3.1 NE 3.1 0.0 0.0
22:50 15.8 9.5 66 1025.7 2.2 N 3.1 0.0 0.0
22:51 15.8 9.5 66 1025.7 3.1 NE 3.1 0.0 0.0
22:52 15.8 9.5 66 1025.6 3.1 N 3.1 0.0 0.0
22:54 15.7 9.4 66 1025.5 3.8 N 4.5 0.0 0.0
22:55 15.7 9.4 66 1025.6 3.8 N 4.5 0.0 0.0
22:56 15.7 9.4 66 1025.7 3.8 NE 4.5 0.0 0.0
22:57 15.7 9.6 67 1025.7 4.5 NE 4.5 0.0 0.0
22:58 15.7 9.6 67 1025.6 3.8 NE 4.5 0.0 0.0
22:59 15.7 9.6 67 1025.7 3.8 E 4.5 0.0 0.0
23:00 15.7 9.6 67 1025.6 3.1 NE 4.5 0.0 0.0
23:01 15.7 9.6 67 1025.6 3.1 NE 4.5 0.0 0.0
23:02 15.7 9.6 67 1025.6 3.1 NE 4.5 0.0 0.0
23:03 15.7 9.6 67 1025.7 3.1 NE 4.5 0.0 0.0
23:04 15.7 9.6 67 1025.7 3.1 NE 4.5 0.0 0.0
23:05 15.7 9.6 67 1025.7 3.1 NE 4.5 0.0 0.0
23:06 15.6 9.5 67 1025.7 3.1 NE 4.5 0.0 0.0
23:07 15.6 9.5 67 1025.7 3.1 NE 4.5 0.0 0.0
23:08 15.6 9.5 67 1025.8 3.1 NE 3.8 0.0 0.0
23:09 15.6 9.7 68 1025.5 2.2 N 3.8 0.0 0.0
23:10 15.6 9.7 68 1025.6 3.8 N 3.8 0.0 0.0
23:11 15.6 9.7 68 1025.7 1.6 NE 3.8 0.0 0.0
23:12 15.6 9.7 68 1025.7 3.1 N 3.8 0.0 0.0
23:13 15.6 9.7 68 1025.6 2.2 NE 3.8 0.0 0.0
23:14 15.6 9.7 68 1025.7 3.1 N 3.8 0.0 0.0
23:15 15.6 9.7 68 1025.6 3.8 N 3.8 0.0 0.0
23:16 15.5 9.6 68 1025.7 3.1 NE 3.8 0.0 0.0
23:17 15.5 9.6 68 1025.7 3.1 N 3.8 0.0 0.0
23:18 15.5 9.6 68 1025.7 3.1 NNE 3.8 0.0 0.0
23:19 15.5 9.6 68 1025.7 1.6 NE 3.8 0.0 0.0
23:20 15.5 9.6 68 1025.7 1.6 NE 3.8 0.0 0.0
23:21 15.5 9.6 68 1025.7 1.6 N 3.8 0.0 0.0
23:22 15.5 9.6 68 1025.7 2.2 N 3.8 0.0 0.0
23:23 15.5 9.6 68 1025.8 1.6 NE 3.8 0.0 0.0
23:24 15.5 9.6 68 1025.7 2.2 NE 3.8 0.0 0.0
23:25 15.5 9.8 69 1025.7 2.2 N 3.8 0.0 0.0
23:26 15.5 9.8 69 1025.8 2.2 NE 3.8 0.0 0.0
23:27 15.5 9.8 69 1025.8 3.1 NE 3.8 0.0 0.0
23:28 15.5 9.8 69 1025.6 2.2 E 3.8 0.0 0.0
23:29 15.4 9.7 69 1025.7 3.1 N 3.1 0.0 0.0
23:30 15.5 9.8 69 1025.8 3.1 N 3.1 0.0 0.0
23:31 15.4 9.7 69 1025.6 2.2 N 3.1 0.0 0.0
23:32 15.4 9.7 69 1025.8 2.2 N 3.1 0.0 0.0
23:33 15.4 9.7 69 1025.7 2.2 NE 3.1 0.0 0.0
23:35 15.4 9.7 69 1025.6 2.2 N 3.1 0.0 0.0
23:36 15.4 9.7 69 1025.8 3.1 NE 3.1 0.0 0.0
23:37 15.4 9.7 69 1025.7 2.2 NE 3.1 0.0 0.0
23:38 15.4 10.0 70 1025.6 2.2 N 3.1 0.0 0.0
23:39 15.4 10.0 70 1025.7 2.2 NNE 3.1 0.0 0.0
23:40 15.4 10.0 70 1025.7 3.1 N 3.1 0.0 0.0
23:41 15.3 9.9 70 1025.7 3.1 NNE 3.1 0.0 0.0
23:42 15.4 10.0 70 1025.8 2.2 NW 3.1 0.0 0.0
23:43 15.3 9.9 70 1025.7 3.1 N 3.1 0.0 0.0
23:44 15.3 9.9 70 1025.7 2.2 NW 3.1 0.0 0.0
23:45 15.3 9.9 70 1025.7 3.1 N 3.1 0.0 0.0
23:46 15.3 9.9 70 1025.7 3.8 N 3.8 0.0 0.0
23:47 15.3 9.9 70 1025.8 3.1 N 3.8 0.0 0.0
23:48 15.3 9.9 70 1025.8 3.8 N 3.8 0.0 0.0
23:49 15.3 9.9 70 1025.8 3.1 N 3.8 0.0 0.0
23:50 15.3 9.9 70 1025.7 3.1 N 3.8 0.0 0.0
23:51 15.3 9.9 70 1025.8 3.1 NW 3.8 0.0 0.0
23:52 15.3 9.9 70 1025.7 3.1 N 3.8 0.0 0.0
23:53 15.2 10.0 71 1025.7 2.2 NW 3.8 0.0 0.0
23:54 15.2 10.0 71 1025.7 3.1 N 3.8 0.0 0.0
23:55 15.2 10.0 71 1025.7 3.1 N 3.8 0.0 0.0
23:56 15.2 10.0 71 1025.9 2.2 NE 3.8 0.0 0.0
23:57 15.2 10.0 71 1025.8 2.2 N 3.8 0.0 0.0
23:58 15.2 10.0 71 1025.8 2.2 N 3.1 0.0 0.0
23:59 15.2 10.0 71 1025.8 2.2 NW 3.1 0.0 0.0

UK - WEATHER STATION TOPSITES - UK World Weather Websites

This is a private weather station, never base important decisions or events on data from this weather station. Although every effort has been made to make the data as accurate as possible it does not meet MetOffice standards. It is proved as a guide of local weather conditions. We accept no liability for any loss which may arise from use of the data.

Copyright © Carnkie Weather 2009 - 2018.